Darstellungsparameter: Aktuell verwendete Einstellungen:
Skalierung der Graphiken ... ?
xyx+y,   Skalierungsfaktor:      Skalierung: Modus: x, Faktor: 1
Darstellungszeitraum ... ?
Vom - - bis: - -   Zeitraum: 31.03.2021 - 04.04.2021
Min/Max/Avg-Anzeige ... ?
Zeige MMA aktuell
Zeige MMA Monat
Zeige MMA alles
Zeige --A aktuell
Zeige --A Monat
Zeige --A alles
Keine MMA-Anzeige
MMA:
Minimum Maximum Average (ber die Originaldaten)
MMA-Basis: 14.04.2020 - 16.05.2020
Quicknavigation für Darstellung... ?
Tage:      1T, 2T, 3T, 5T -1T -2T -3T -5T +1T +2T +3T +5T
Wochen: 1W, 2W, 3W -1W -2W -3W +1W +2W +3W
Monate: 1M, 3M, 6M -1M -3M -6M +1M +3M +6M
Jahre:    1J, 3J, 5J, 10J -1J -3J -5J -10J +1J +3J +5J +10J
Nutze für die Darstellung ... ?
Originaldaten oder Mittelwerte auf ...
Stundenbasis Tagesbasis Wochenbasis
Monatsbasis Jahresbasis      Datenbasis: Original-Daten
Darstellen als:
Statistik (Auto) Statistik J:M      Darstellung:
Zur Graphik,    zurück zur Übersicht aller Sensoren.
 
Tabellarische Datenbersicht: ?
 
Sensor: Nr:Datum:Temp:Abs-Feuchte:Windchill:Wind:
Aussen-T/F 1 31-03-2021 00:00:00 8.3 C 6.07 g/m*3 8.3 C 0 km/h
2 31-03-2021 00:05:00 8.3 C 6.15 g/m*3 8.3 C 1.6 km/h
3 31-03-2021 00:10:00 8.3 C 6.15 g/m*3 8.3 C 0 km/h
4 31-03-2021 00:15:00 8.3 C 6.15 g/m*3 8.3 C 0 km/h
5 31-03-2021 00:20:00 8.3 C 6.07 g/m*3 8.3 C 0 km/h
6 31-03-2021 00:25:00 8.3 C 6.07 g/m*3 8.3 C 0 km/h
7 31-03-2021 00:30:00 8.2 C 6.03 g/m*3 8.2 C 0 km/h
8 31-03-2021 00:35:00 8.1 C 6.07 g/m*3 8.1 C 0 km/h
9 31-03-2021 00:40:00 8.1 C 6.07 g/m*3 8.1 C 0 km/h
10 31-03-2021 00:45:00 8 C 6.04 g/m*3 8 C 0 km/h
11 31-03-2021 00:50:00 7.9 C 6.08 g/m*3 7.9 C 0 km/h
12 31-03-2021 00:55:00 7.8 C 6.04 g/m*3 7.8 C 0 km/h
13 31-03-2021 01:00:00 7.7 C 6 g/m*3 7.7 C 0 km/h
14 31-03-2021 01:05:00 7.7 C 6.08 g/m*3 7.7 C 0 km/h
15 31-03-2021 01:10:00 7.6 C 6.12 g/m*3 7.6 C 0 km/h
16 31-03-2021 01:15:00 7.5 C 6.08 g/m*3 7.5 C 0 km/h
17 31-03-2021 01:20:00 7.4 C 6.04 g/m*3 7.4 C 0 km/h
18 31-03-2021 01:25:00 7.3 C 6 g/m*3 7.3 C 0 km/h
19 31-03-2021 01:30:00 7.2 C 5.97 g/m*3 7.2 C 0 km/h
20 31-03-2021 01:35:00 7.2 C 6.04 g/m*3 7.2 C 0 km/h
21 31-03-2021 01:40:00 7.1 C 6.01 g/m*3 7.1 C 0 km/h
22 31-03-2021 01:45:00 6.9 C 6 g/m*3 6.9 C 0 km/h
23 31-03-2021 01:50:00 6.9 C 6 g/m*3 6.9 C 0 km/h
24 31-03-2021 01:55:00 6.8 C 5.97 g/m*3 6.8 C 0 km/h
25 31-03-2021 02:00:00 6.8 C 6.04 g/m*3 6.8 C 0 km/h
Sensor: Nr:Datum:Temp:Abs-Feuchte:Windchill:Wind:
Aussen-T/F 26 31-03-2021 02:05:00 6.7 C 6 g/m*3 6.7 C 0 km/h
27 31-03-2021 02:10:00 6.6 C 5.96 g/m*3 6.6 C 0 km/h
28 31-03-2021 02:15:00 6.4 C 5.89 g/m*3 6.4 C 0 km/h
29 31-03-2021 02:20:00 6.4 C 5.96 g/m*3 6.4 C 0 km/h
30 31-03-2021 02:25:00 6.4 C 6.04 g/m*3 6.4 C 0 km/h
31 31-03-2021 02:30:00 6.3 C 6 g/m*3 6.3 C 0 km/h
32 31-03-2021 02:35:00 6.3 C 5.92 g/m*3 6.3 C 0 km/h
33 31-03-2021 02:40:00 6.2 C 5.96 g/m*3 6.2 C 0 km/h
34 31-03-2021 02:45:00 6.1 C 5.92 g/m*3 6.1 C 0 km/h
35 31-03-2021 02:50:00 6 C 5.88 g/m*3 6 C 0 km/h
36 31-03-2021 02:55:00 5.9 C 5.91 g/m*3 5.9 C 0 km/h
37 31-03-2021 03:00:00 5.9 C 5.91 g/m*3 5.9 C 0 km/h
38 31-03-2021 03:05:00 5.8 C 5.87 g/m*3 5.8 C 0 km/h
39 31-03-2021 03:10:00 5.7 C 5.84 g/m*3 5.7 C 0 km/h
40 31-03-2021 03:15:00 5.7 C 5.91 g/m*3 5.7 C 0 km/h
41 31-03-2021 03:20:00 5.7 C 5.91 g/m*3 5.7 C 0 km/h
42 31-03-2021 03:25:00 5.6 C 5.87 g/m*3 5.6 C 0 km/h
43 31-03-2021 03:30:00 5.5 C 5.83 g/m*3 5.5 C 0 km/h
44 31-03-2021 03:35:00 5.3 C 5.75 g/m*3 5.3 C 0 km/h
45 31-03-2021 03:40:00 5.2 C 5.78 g/m*3 5.2 C 0 km/h
46 31-03-2021 03:45:00 5.2 C 5.78 g/m*3 5.2 C 0 km/h
47 31-03-2021 03:50:00 5.2 C 5.85 g/m*3 5.2 C 0 km/h
48 31-03-2021 03:55:00 5.2 C 5.78 g/m*3 5.2 C 0 km/h
49 31-03-2021 04:00:00 5.1 C 5.75 g/m*3 5.1 C 0 km/h
50 31-03-2021 04:05:00 5 C 5.71 g/m*3 5 C 0 km/h
Sensor: Nr:Datum:Temp:Abs-Feuchte:Windchill:Wind:
Aussen-T/F 51 31-03-2021 04:10:00 4.9 C 5.67 g/m*3 4.9 C 0 km/h
52 31-03-2021 04:15:00 4.8 C 5.7 g/m*3 4.8 C 0 km/h
53 31-03-2021 04:20:00 4.8 C 5.7 g/m*3 4.8 C 0 km/h
54 31-03-2021 04:25:00 4.8 C 5.7 g/m*3 4.8 C 0 km/h
55 31-03-2021 04:30:00 4.8 C 5.7 g/m*3 4.8 C 0 km/h
56 31-03-2021 04:35:00 4.7 C 5.66 g/m*3 4.7 C 0 km/h
57 31-03-2021 04:40:00 4.7 C 5.66 g/m*3 4.7 C 0 km/h
58 31-03-2021 04:45:00 4.6 C 5.62 g/m*3 4.6 C 0 km/h
59 31-03-2021 04:50:00 4.5 C 5.59 g/m*3 4.5 C 0 km/h
60 31-03-2021 04:55:00 4.4 C 5.62 g/m*3 4.4 C 0 km/h
61 31-03-2021 05:00:00 4.4 C 5.68 g/m*3 4.4 C 0 km/h
62 31-03-2021 05:05:00 4.3 C 5.58 g/m*3 4.3 C 0 km/h
63 31-03-2021 05:10:00 4.2 C 5.61 g/m*3 4.2 C 0 km/h
64 31-03-2021 05:15:00 4.1 C 5.57 g/m*3 4.1 C 0 km/h
65 31-03-2021 05:20:00 4 C 5.53 g/m*3 4 C 0 km/h
66 31-03-2021 05:25:00 3.9 C 5.49 g/m*3 3.9 C 0 km/h
67 31-03-2021 05:30:00 3.8 C 5.46 g/m*3 3.8 C 0 km/h
68 31-03-2021 05:35:00 3.7 C 5.42 g/m*3 3.7 C 0 km/h
69 31-03-2021 05:40:00 3.7 C 5.48 g/m*3 3.7 C 0 km/h
70 31-03-2021 05:45:00 3.7 C 5.48 g/m*3 3.7 C 0 km/h
71 31-03-2021 05:50:00 3.7 C 5.48 g/m*3 3.7 C 0 km/h
72 31-03-2021 05:55:00 3.7 C 5.48 g/m*3 3.7 C 0 km/h
73 31-03-2021 06:00:00 3.7 C 5.55 g/m*3 3.7 C 0 km/h
74 31-03-2021 06:05:00 3.8 C 5.58 g/m*3 3.8 C 0 km/h
75 31-03-2021 06:10:00 3.8 C 5.58 g/m*3 3.8 C 0 km/h
Sensor: Nr:Datum:Temp:Abs-Feuchte:Windchill:Wind:
Aussen-T/F 76 31-03-2021 06:15:00 3.8 C 5.52 g/m*3 3.8 C 0 km/h
77 31-03-2021 06:20:00 3.8 C 5.52 g/m*3 3.8 C 0 km/h
78 31-03-2021 06:25:00 3.7 C 5.48 g/m*3 3.7 C 0 km/h
79 31-03-2021 06:30:00 3.6 C 5.45 g/m*3 3.6 C 0 km/h
80 31-03-2021 06:35:00 3.4 C 5.37 g/m*3 3.4 C 0 km/h
81 31-03-2021 06:40:00 3.3 C 5.34 g/m*3 3.3 C 0 km/h
82 31-03-2021 06:45:00 3.3 C 5.34 g/m*3 3.3 C 0 km/h
83 31-03-2021 06:50:00 3.2 C 5.36 g/m*3 3.2 C 0 km/h
84 31-03-2021 06:55:00 3.2 C 5.42 g/m*3 3.2 C 0 km/h
85 31-03-2021 07:00:00 3.2 C 5.42 g/m*3 3.2 C 0 km/h
86 31-03-2021 07:05:00 3.3 C 5.46 g/m*3 3.3 C 0 km/h
87 31-03-2021 07:10:00 3.3 C 5.46 g/m*3 3.3 C 0 km/h
88 31-03-2021 07:15:00 3.2 C 5.42 g/m*3 3.2 C 0 km/h
89 31-03-2021 07:20:00 3.1 C 5.39 g/m*3 3.1 C 0 km/h
90 31-03-2021 07:25:00 3.1 C 5.39 g/m*3 3.1 C 0 km/h
91 31-03-2021 07:30:00 3 C 5.35 g/m*3 3 C 0 km/h
92 31-03-2021 07:35:00 3.1 C 5.45 g/m*3 3.1 C 0 km/h
93 31-03-2021 07:40:00 3.2 C 5.48 g/m*3 3.2 C 0 km/h
94 31-03-2021 07:45:00 3.3 C 5.52 g/m*3 3.3 C 0 km/h
95 31-03-2021 07:50:00 3.4 C 5.56 g/m*3 3.4 C 0 km/h
96 31-03-2021 07:55:00 3.4 C 5.56 g/m*3 3.4 C 0 km/h
97 31-03-2021 08:00:00 3.4 C 5.56 g/m*3 3.4 C 0 km/h
98 31-03-2021 08:05:00 3.4 C 5.56 g/m*3 3.4 C 0 km/h
99 31-03-2021 08:10:00 3.5 C 5.6 g/m*3 3.5 C 1.6 km/h
100 31-03-2021 08:15:00 3.7 C 5.73 g/m*3 3.7 C 0 km/h
Sensor: Nr:Datum:Temp:Abs-Feuchte:Windchill:Wind:
Aussen-T/F 101 31-03-2021 08:20:00 3.7 C 5.67 g/m*3 3.7 C 0 km/h
102 31-03-2021 08:25:00 3.7 C 5.67 g/m*3 3.7 C 0 km/h
103 31-03-2021 08:30:00 3.8 C 5.71 g/m*3 3.8 C 0 km/h
104 31-03-2021 08:35:00 3.9 C 5.75 g/m*3 3.9 C 0 km/h
105 31-03-2021 08:40:00 3.9 C 5.75 g/m*3 3.9 C 0 km/h
106 31-03-2021 08:45:00 4 C 5.79 g/m*3 4 C 0 km/h
107 31-03-2021 08:50:00 4.1 C 5.82 g/m*3 4.1 C 0 km/h
108 31-03-2021 08:55:00 4.2 C 5.86 g/m*3 4.2 C 0 km/h
109 31-03-2021 09:00:00 4.2 C 5.86 g/m*3 4.2 C 0 km/h
110 31-03-2021 09:05:00 4.3 C 5.9 g/m*3 4.3 C 0 km/h
111 31-03-2021 09:10:00 4.4 C 5.94 g/m*3 4.4 C 0 km/h
112 31-03-2021 09:15:00 4.5 C 5.98 g/m*3 4.5 C 0 km/h
113 31-03-2021 09:20:00 4.6 C 6.02 g/m*3 4.6 C 0 km/h
114 31-03-2021 09:25:00 4.8 C 6.1 g/m*3 4.8 C 0 km/h
115 31-03-2021 09:30:00 4.9 C 6.14 g/m*3 4.9 C 0 km/h
116 31-03-2021 09:35:00 5.1 C 6.22 g/m*3 5.1 C 0 km/h
117 31-03-2021 09:40:00 5.3 C 6.24 g/m*3 5.3 C 0 km/h
118 31-03-2021 09:45:00 5.4 C 6.28 g/m*3 5.4 C 0 km/h
119 31-03-2021 09:50:00 5.5 C 6.32 g/m*3 5.5 C 0 km/h
120 31-03-2021 09:55:00 5.7 C 6.33 g/m*3 5.7 C 0 km/h
121 31-03-2021 10:00:00 5.8 C 6.38 g/m*3 5.8 C 0 km/h
122 31-03-2021 10:05:00 6 C 6.46 g/m*3 6 C 0 km/h
123 31-03-2021 10:10:00 6.2 C 6.55 g/m*3 6.2 C 0 km/h
124 31-03-2021 10:15:00 6.4 C 6.63 g/m*3 6.4 C 0 km/h
125 31-03-2021 10:20:00 6.6 C 6.64 g/m*3 6.6 C 0 km/h
Sensor: Nr:Datum:Temp:Abs-Feuchte:Windchill:Wind:
Aussen-T/F 126 31-03-2021 10:25:00 6.9 C 6.77 g/m*3 6.9 C 0 km/h
127 31-03-2021 10:30:00 7.1 C 6.79 g/m*3 7.1 C 0 km/h
128 31-03-2021 10:35:00 7.3 C 6.87 g/m*3 7.3 C 0 km/h
129 31-03-2021 10:40:00 7.7 C 6.97 g/m*3 7.7 C 0 km/h
130 31-03-2021 10:45:00 8.1 C 6.99 g/m*3 8.1 C 0 km/h
131 31-03-2021 10:50:00 8.6 C 7.13 g/m*3 8.6 C 0 km/h
132 31-03-2021 10:55:00 9.1 C 7.28 g/m*3 9.1 C 0 km/h
133 31-03-2021 11:00:00 9.6 C 7.42 g/m*3 9.6 C 0 km/h
134 31-03-2021 11:05:00 10.1 C 7.47 g/m*3 10.1 C 0 km/h
135 31-03-2021 11:10:00 10.4 C 7.42 g/m*3 10.4 C 1.6 km/h
136 31-03-2021 11:15:00 10.8 C 7.51 g/m*3 10.8 C 0 km/h
137 31-03-2021 11:20:00 11.1 C 7.55 g/m*3 11.1 C 0 km/h
138 31-03-2021 11:25:00 11.4 C 7.6 g/m*3 11.4 C 0 km/h
139 31-03-2021 11:30:00 11.8 C 7.58 g/m*3 11.8 C 0 km/h
140 31-03-2021 11:35:00 12.2 C 7.88 g/m*3 12.2 C 0 km/h
141 31-03-2021 11:40:00 12.6 C 7.74 g/m*3 12.6 C 1.6 km/h
142 31-03-2021 11:45:00 12.9 C 7.89 g/m*3 12.9 C 0 km/h
143 31-03-2021 11:50:00 13.3 C 7.86 g/m*3 13.3 C 0 km/h
144 31-03-2021 11:55:00 13.8 C 7.63 g/m*3 13.8 C 1.6 km/h
145 31-03-2021 12:00:00 14.3 C 7.74 g/m*3 14.3 C 0 km/h
146 31-03-2021 12:05:00 14.6 C 7.88 g/m*3 14.6 C 0 km/h
147 31-03-2021 12:10:00 14.9 C 7.9 g/m*3 14.9 C 0 km/h
148 31-03-2021 12:15:00 15.3 C 8.1 g/m*3 15.3 C 0 km/h
149 31-03-2021 12:20:00 15.6 C 7.98 g/m*3 15.6 C 0 km/h
150 31-03-2021 12:25:00 15.9 C 8.13 g/m*3 15.9 C 1.6 km/h
Sensor: Nr:Datum:Temp:Abs-Feuchte:Windchill:Wind:
Aussen-T/F 151 31-03-2021 12:30:00 16.4 C 7.96 g/m*3 16.4 C 1.6 km/h
152 31-03-2021 12:35:00 16.9 C 7.91 g/m*3 16.9 C 0 km/h
153 31-03-2021 12:40:00 17.5 C 7.45 g/m*3 17.5 C 0 km/h
154 31-03-2021 12:45:00 18.1 C 8.03 g/m*3 18.1 C 1.6 km/h
155 31-03-2021 12:50:00 18.4 C 7.55 g/m*3 18.4 C 1.6 km/h
156 31-03-2021 12:55:00 18.8 C 7.57 g/m*3 18.8 C 0 km/h
157 31-03-2021 13:00:00 19.3 C 7.63 g/m*3 19.3 C 1.6 km/h
158 31-03-2021 13:05:00 19.8 C 7.69 g/m*3 19.8 C 1.6 km/h
159 31-03-2021 13:10:00 20.2 C 7.52 g/m*3 20.2 C 0 km/h
160 31-03-2021 13:15:00 20.6 C 7.34 g/m*3 20.6 C 1.6 km/h
161 31-03-2021 13:20:00 20.8 C 7.24 g/m*3 20.8 C 1.6 km/h
162 31-03-2021 13:25:00 21.2 C 7.41 g/m*3 21.2 C 1.6 km/h
163 31-03-2021 13:30:00 21.4 C 7.5 g/m*3 21.4 C 1.6 km/h
164 31-03-2021 13:35:00 21.8 C 7.67 g/m*3 21.8 C 3.2 km/h
165 31-03-2021 13:40:00 22.1 C 7.61 g/m*3 22.1 C 4.8 km/h
166 31-03-2021 13:45:00 22.2 C 7.46 g/m*3 22.2 C 3.2 km/h
167 31-03-2021 13:50:00 22.3 C 7.31 g/m*3 22.3 C 1.6 km/h
168 31-03-2021 13:55:00 22.5 C 7.39 g/m*3 22.5 C 1.6 km/h
169 31-03-2021 14:00:00 22.6 C 7.23 g/m*3 22.6 C 1.6 km/h
170 31-03-2021 14:05:00 22.8 C 7.32 g/m*3 22.8 C 3.2 km/h
171 31-03-2021 14:10:00 23.1 C 7.23 g/m*3 23.1 C 4.8 km/h
172 31-03-2021 14:15:00 23.3 C 7.32 g/m*3 23.3 C 4.8 km/h
173 31-03-2021 14:20:00 23.6 C 7.23 g/m*3 23.6 C 8.1 km/h
174 31-03-2021 14:25:00 23.8 C 7.1 g/m*3 23.8 C 8.1 km/h
175 31-03-2021 14:30:00 24.1 C 7.66 g/m*3 24.1 C 4.8 km/h
Sensor: Nr:Datum:Temp:Abs-Feuchte:Windchill:Wind:
Aussen-T/F 176 31-03-2021 14:35:00 24.3 C 7.75 g/m*3 24.3 C 8.1 km/h
177 31-03-2021 14:40:00 24.6 C 7.88 g/m*3 24.6 C 4.8 km/h
178 31-03-2021 14:45:00 24.8 C 7.51 g/m*3 24.8 C 6.4 km/h
179 31-03-2021 14:50:00 24.9 C 7.55 g/m*3 24.9 C 4.8 km/h
180 31-03-2021 14:55:00 25.2 C 7.45 g/m*3 25.2 C 8.1 km/h
181 31-03-2021 15:00:00 25.4 C 7.3 g/m*3 25.4 C 9.7 km/h
182 31-03-2021 15:05:00 25.4 C 7.3 g/m*3 25.4 C 11.3 km/h
183 31-03-2021 15:10:00 25.4 C 7.06 g/m*3 25.4 C 9.7 km/h
184 31-03-2021 15:15:00 25.4 C 7.53 g/m*3 25.4 C 11.3 km/h
185 31-03-2021 15:20:00 25.5 C 7.34 g/m*3 25.5 C 9.7 km/h
186 31-03-2021 15:25:00 25.4 C 7.06 g/m*3 25.4 C 11.3 km/h
187 31-03-2021 15:30:00 25.5 C 7.1 g/m*3 25.5 C 8.1 km/h
188 31-03-2021 15:35:00 25.6 C 7.38 g/m*3 25.6 C 8.1 km/h
189 31-03-2021 15:40:00 25.7 C 6.94 g/m*3 25.7 C 9.7 km/h
190 31-03-2021 15:45:00 25.7 C 6.94 g/m*3 25.7 C 9.7 km/h
191 31-03-2021 15:50:00 25.6 C 6.9 g/m*3 25.6 C 9.7 km/h
192 31-03-2021 15:55:00 25.6 C 6.67 g/m*3 25.6 C 12.9 km/h
193 31-03-2021 16:00:00 25.7 C 6.46 g/m*3 25.7 C 12.9 km/h
194 31-03-2021 16:05:00 25.7 C 6.7 g/m*3 25.7 C 11.3 km/h
195 31-03-2021 16:10:00 25.8 C 6.5 g/m*3 25.8 C 9.7 km/h
196 31-03-2021 16:15:00 25.8 C 6.98 g/m*3 25.8 C 14.5 km/h
197 31-03-2021 16:20:00 25.8 C 6.74 g/m*3 25.8 C 12.9 km/h
198 31-03-2021 16:25:00 26 C 6.82 g/m*3 26 C 8.1 km/h
199 31-03-2021 16:30:00 26.3 C 6.44 g/m*3 26.3 C 17.7 km/h
200 31-03-2021 16:35:00 26.3 C 6.68 g/m*3 26.3 C 17.7 km/h
Sensor: Nr:Datum:Temp:Abs-Feuchte:Windchill:Wind:
Aussen-T/F 201 31-03-2021 16:40:00 26.4 C 6.72 g/m*3 26.4 C 14.5 km/h
202 31-03-2021 16:45:00 26.7 C 6.33 g/m*3 26.7 C 16.1 km/h
203 31-03-2021 16:50:00 26.7 C 6.07 g/m*3 26.7 C 11.3 km/h
204 31-03-2021 16:55:00 26.8 C 5.85 g/m*3 26.8 C 17.7 km/h
205 31-03-2021 17:00:00 26.9 C 5.89 g/m*3 26.9 C 11.3 km/h
206 31-03-2021 17:05:00 27.1 C 6.21 g/m*3 27.1 C 11.3 km/h
207 31-03-2021 17:10:00 27.3 C 6.28 g/m*3 27.3 C 12.9 km/h
208 31-03-2021 17:15:00 27.3 C 6.28 g/m*3 27.3 C 9.7 km/h
209 31-03-2021 17:20:00 27.4 C 6.31 g/m*3 27.4 C 8.1 km/h
210 31-03-2021 17:25:00 27.5 C 6.61 g/m*3 27.5 C 8.1 km/h
211 31-03-2021 17:30:00 27.4 C 6.05 g/m*3 27.4 C 11.3 km/h
212 31-03-2021 17:35:00 27.4 C 6.31 g/m*3 27.4 C 9.7 km/h
213 31-03-2021 17:40:00 27.4 C 6.05 g/m*3 27.4 C 9.7 km/h
214 31-03-2021 17:45:00 27.4 C 6.05 g/m*3 27.4 C 11.3 km/h
215 31-03-2021 17:50:00 27.4 C 6.05 g/m*3 27.4 C 11.3 km/h
216 31-03-2021 17:55:00 27.4 C 6.05 g/m*3 27.4 C 9.7 km/h
217 31-03-2021 18:00:00 27.3 C 6.54 g/m*3 27.3 C 11.3 km/h
218 31-03-2021 18:05:00 27.3 C 6.8 g/m*3 27.3 C 9.7 km/h
219 31-03-2021 18:10:00 27.4 C 6.58 g/m*3 27.4 C 8.1 km/h
220 31-03-2021 18:15:00 27.3 C 6.8 g/m*3 27.3 C 9.7 km/h
221 31-03-2021 18:20:00 27.3 C 6.54 g/m*3 27.3 C 8.1 km/h
222 31-03-2021 18:25:00 27.1 C 6.99 g/m*3 27.1 C 8.1 km/h
223 31-03-2021 18:30:00 27.2 C 7.29 g/m*3 27.2 C 4.8 km/h
224 31-03-2021 18:35:00 27.2 C 6.51 g/m*3 27.2 C 9.7 km/h
225 31-03-2021 18:40:00 27 C 6.69 g/m*3 27 C 8.1 km/h
Sensor: Nr:Datum:Temp:Abs-Feuchte:Windchill:Wind:
Aussen-T/F 226 31-03-2021 18:45:00 26.8 C 6.87 g/m*3 26.8 C 4.8 km/h
227 31-03-2021 18:50:00 26.8 C 7.38 g/m*3 26.8 C 3.2 km/h
228 31-03-2021 18:55:00 26.8 C 7.13 g/m*3 26.8 C 1.6 km/h
229 31-03-2021 19:00:00 26.7 C 7.09 g/m*3 26.7 C 8.1 km/h
230 31-03-2021 19:05:00 26.3 C 7.18 g/m*3 26.3 C 8.1 km/h
231 31-03-2021 19:10:00 25.9 C 7.02 g/m*3 25.9 C 6.4 km/h
232 31-03-2021 19:15:00 25.4 C 7.53 g/m*3 25.4 C 4.8 km/h
233 31-03-2021 19:20:00 25 C 7.37 g/m*3 25 C 4.8 km/h
234 31-03-2021 19:25:00 24.7 C 7.7 g/m*3 24.7 C 4.8 km/h
235 31-03-2021 19:30:00 24.2 C 7.7 g/m*3 24.2 C 4.8 km/h
236 31-03-2021 19:35:00 23.7 C 7.7 g/m*3 23.7 C 6.4 km/h
237 31-03-2021 19:40:00 23.2 C 8.11 g/m*3 23.2 C 6.4 km/h
238 31-03-2021 19:45:00 22.5 C 7.79 g/m*3 22.5 C 6.4 km/h
239 31-03-2021 19:50:00 21.8 C 7.67 g/m*3 21.8 C 6.4 km/h
240 31-03-2021 19:55:00 21.1 C 7.74 g/m*3 21.1 C 6.4 km/h
241 31-03-2021 20:00:00 20.4 C 7.96 g/m*3 20.4 C 6.4 km/h
242 31-03-2021 20:05:00 19.8 C 7.86 g/m*3 19.8 C 6.4 km/h
243 31-03-2021 20:10:00 19.3 C 7.8 g/m*3 19.3 C 6.4 km/h
244 31-03-2021 20:15:00 18.9 C 7.94 g/m*3 18.9 C 6.4 km/h
245 31-03-2021 20:20:00 18.5 C 7.91 g/m*3 18.5 C 6.4 km/h
246 31-03-2021 20:25:00 18.2 C 7.77 g/m*3 18.2 C 6.4 km/h
247 31-03-2021 20:30:00 17.8 C 7.74 g/m*3 17.8 C 6.4 km/h
248 31-03-2021 20:35:00 17.6 C 7.8 g/m*3 17.6 C 6.4 km/h
249 31-03-2021 20:40:00 17.4 C 7.71 g/m*3 17.4 C 6.4 km/h
250 31-03-2021 20:45:00 17.3 C 7.81 g/m*3 17.3 C 6.4 km/h
Sensor: Nr:Datum:Temp:Abs-Feuchte:Windchill:Wind:
Aussen-T/F 251 31-03-2021 20:50:00 17.2 C 7.91 g/m*3 17.2 C 4.8 km/h
252 31-03-2021 20:55:00 17 C 7.81 g/m*3 17 C 4.8 km/h
253 31-03-2021 21:00:00 16.8 C 7.72 g/m*3 16.8 C 4.8 km/h
254 31-03-2021 21:05:00 16.6 C 7.77 g/m*3 16.6 C 4.8 km/h
255 31-03-2021 21:10:00 16.4 C 7.82 g/m*3 16.4 C 3.2 km/h
256 31-03-2021 21:15:00 16.2 C 7.86 g/m*3 16.2 C 3.2 km/h
257 31-03-2021 21:20:00 16 C 7.9 g/m*3 16 C 1.6 km/h
258 31-03-2021 21:25:00 15.9 C 7.99 g/m*3 15.9 C 1.6 km/h
259 31-03-2021 21:30:00 15.7 C 7.89 g/m*3 15.7 C 1.6 km/h
260 31-03-2021 21:35:00 15.6 C 7.98 g/m*3 15.6 C 0 km/h
261 31-03-2021 21:40:00 15.2 C 7.92 g/m*3 15.2 C 0 km/h
262 31-03-2021 21:45:00 14.8 C 7.85 g/m*3 14.8 C 0 km/h
263 31-03-2021 21:50:00 14.5 C 7.96 g/m*3 14.5 C 0 km/h
264 31-03-2021 21:55:00 14.2 C 7.82 g/m*3 14.2 C 0 km/h
265 31-03-2021 22:00:00 14 C 7.84 g/m*3 14 C 0 km/h
266 31-03-2021 22:05:00 13.8 C 7.74 g/m*3 13.8 C 0 km/h
267 31-03-2021 22:10:00 13.7 C 7.93 g/m*3 13.7 C 0 km/h
268 31-03-2021 22:15:00 13.6 C 7.77 g/m*3 13.6 C 1.6 km/h
269 31-03-2021 22:20:00 13.4 C 7.67 g/m*3 13.4 C 1.6 km/h
270 31-03-2021 22:25:00 13.4 C 7.56 g/m*3 13.4 C 6.4 km/h
271 31-03-2021 22:30:00 13.6 C 7.65 g/m*3 13.6 C 4.8 km/h
272 31-03-2021 22:35:00 13.6 C 7.65 g/m*3 13.6 C 4.8 km/h
273 31-03-2021 22:40:00 13.6 C 7.65 g/m*3 13.6 C 8.1 km/h
274 31-03-2021 22:45:00 13.6 C 7.77 g/m*3 13.6 C 9.7 km/h
275 31-03-2021 22:50:00 13.7 C 7.93 g/m*3 13.7 C 4.8 km/h
Sensor: Nr:Datum:Temp:Abs-Feuchte:Windchill:Wind:
Aussen-T/F 276 31-03-2021 22:55:00 13.7 C 7.82 g/m*3 13.7 C 4.8 km/h
277 31-03-2021 23:00:00 13.5 C 7.72 g/m*3 13.5 C 1.6 km/h
278 31-03-2021 23:05:00 13.3 C 7.74 g/m*3 13.3 C 0 km/h
279 31-03-2021 23:10:00 13.1 C 7.65 g/m*3 13.1 C 0 km/h
280 31-03-2021 23:15:00 12.9 C 7.55 g/m*3 12.9 C 0 km/h
281 31-03-2021 23:20:00 12.7 C 7.57 g/m*3 12.7 C 3.2 km/h
282 31-03-2021 23:25:00 12.6 C 7.52 g/m*3 12.6 C 1.6 km/h
283 31-03-2021 23:30:00 12.5 C 7.48 g/m*3 12.5 C 1.6 km/h
284 31-03-2021 23:35:00 12.4 C 7.43 g/m*3 12.4 C 1.6 km/h
285 31-03-2021 23:40:00 12.3 C 7.38 g/m*3 12.3 C 0 km/h
286 31-03-2021 23:45:00 12.1 C 7.29 g/m*3 12.1 C 0 km/h
287 31-03-2021 23:50:00 12 C 7.35 g/m*3 12 C 0 km/h
288 31-03-2021 23:55:00 11.8 C 7.37 g/m*3 11.8 C 0 km/h
289 01-04-2021 00:00:00 11.7 C 7.32 g/m*3 11.7 C 1.6 km/h
290 01-04-2021 00:05:00 11.6 C 7.28 g/m*3 11.6 C 0 km/h
291 01-04-2021 00:10:00 11.5 C 7.23 g/m*3 11.5 C 1.6 km/h
292 01-04-2021 00:15:00 11.5 C 7.33 g/m*3 11.5 C 1.6 km/h
293 01-04-2021 00:20:00 11.6 C 7.28 g/m*3 11.6 C 0 km/h
294 01-04-2021 00:25:00 11.6 C 7.28 g/m*3 11.6 C 1.6 km/h
295 01-04-2021 00:30:00 11.4 C 7.29 g/m*3 11.4 C 0 km/h
296 01-04-2021 00:35:00 11.3 C 7.24 g/m*3 11.3 C 0 km/h
297 01-04-2021 00:40:00 11.2 C 7.2 g/m*3 11.2 C 0 km/h
298 01-04-2021 00:45:00 11.2 C 7.3 g/m*3 11.2 C 0 km/h
299 01-04-2021 00:50:00 11.2 C 7.2 g/m*3 11.2 C 0 km/h
300 01-04-2021 00:55:00 10.9 C 7.16 g/m*3 10.9 C 3.2 km/h
Sensor: Nr:Datum:Temp:Abs-Feuchte:Windchill:Wind:
Aussen-T/F 301 01-04-2021 01:00:00 10.8 C 7.22 g/m*3 10.8 C 1.6 km/h
302 01-04-2021 01:05:00 10.7 C 7.17 g/m*3 10.7 C 0 km/h
303 01-04-2021 01:10:00 10.6 C 7.12 g/m*3 10.6 C 0 km/h
304 01-04-2021 01:15:00 10.4 C 7.13 g/m*3 10.4 C 0 km/h
305 01-04-2021 01:20:00 10.3 C 7.09 g/m*3 10.3 C 0 km/h
306 01-04-2021 01:25:00 10.1 C 7 g/m*3 10.1 C 0 km/h
307 01-04-2021 01:30:00 9.9 C 7 g/m*3 9.9 C 3.2 km/h
308 01-04-2021 01:35:00 9.8 C 7.05 g/m*3 9.8 C 0 km/h
309 01-04-2021 01:40:00 9.6 C 6.96 g/m*3 9.6 C 0 km/h
310 01-04-2021 01:45:00 9.4 C 6.96 g/m*3 9.4 C 0 km/h
311 01-04-2021 01:50:00 9.3 C 6.92 g/m*3 9.3 C 0 km/h
312 01-04-2021 01:55:00 9.2 C 6.97 g/m*3 9.2 C 0 km/h
313 01-04-2021 02:00:00 8.9 C 6.83 g/m*3 8.9 C 0 km/h
314 01-04-2021 02:05:00 8.8 C 6.79 g/m*3 8.8 C 0 km/h
315 01-04-2021 02:10:00 8.6 C 6.79 g/m*3 8.6 C 0 km/h
316 01-04-2021 02:15:00 8.4 C 6.79 g/m*3 8.4 C 0 km/h
317 01-04-2021 02:20:00 8.3 C 6.83 g/m*3 8.3 C 0 km/h
318 01-04-2021 02:25:00 8.3 C 6.91 g/m*3 8.3 C 0 km/h
319 01-04-2021 02:30:00 8.3 C 7 g/m*3 8.3 C 0 km/h
320 01-04-2021 02:35:00 8.3 C 7 g/m*3 8.3 C 0 km/h
321 01-04-2021 02:40:00 8.5 C 7.09 g/m*3 8.5 C 3.2 km/h
322 01-04-2021 02:45:00 8.7 C 7.09 g/m*3 8.7 C 0 km/h
323 01-04-2021 02:50:00 8.8 C 7.14 g/m*3 8.8 C 1.6 km/h
324 01-04-2021 02:55:00 8.8 C 7.05 g/m*3 8.8 C 0 km/h
325 01-04-2021 03:00:00 8.8 C 7.05 g/m*3 8.8 C 3.2 km/h
Sensor: Nr:Datum:Temp:Abs-Feuchte:Windchill:Wind:
Aussen-T/F 326 01-04-2021 03:05:00 8.8 C 6.96 g/m*3 8.8 C 0 km/h
327 01-04-2021 03:10:00 8.6 C 6.87 g/m*3 8.6 C 0 km/h
328 01-04-2021 03:15:00 8.4 C 6.87 g/m*3 8.4 C 1.6 km/h
329 01-04-2021 03:20:00 8.3 C 6.83 g/m*3 8.3 C 1.6 km/h
330 01-04-2021 03:25:00 8.2 C 6.87 g/m*3 8.2 C 1.6 km/h
331 01-04-2021 03:30:00 8.2 C 6.95 g/m*3 8.2 C 0 km/h
332 01-04-2021 03:35:00 8.2 C 6.95 g/m*3 8.2 C 0 km/h
333 01-04-2021 03:40:00 8.1 C 6.91 g/m*3 8.1 C 0 km/h
334 01-04-2021 03:45:00 8.1 C 6.82 g/m*3 8.1 C 1.6 km/h
335 01-04-2021 03:50:00 8 C 6.78 g/m*3 8 C 3.2 km/h
336 01-04-2021 03:55:00 7.9 C 6.82 g/m*3 7.9 C 0 km/h
337 01-04-2021 04:00:00 7.8 C 6.86 g/m*3 7.8 C 0 km/h
338 01-04-2021 04:05:00 7.8 C 6.86 g/m*3 7.8 C 0 km/h
339 01-04-2021 04:10:00 7.8 C 6.86 g/m*3 7.8 C 0 km/h
340 01-04-2021 04:15:00 7.7 C 6.81 g/m*3 7.7 C 0 km/h
341 01-04-2021 04:20:00 7.5 C 6.72 g/m*3 7.5 C 0 km/h
342 01-04-2021 04:25:00 7.4 C 6.76 g/m*3 7.4 C 1.6 km/h
343 01-04-2021 04:30:00 7.6 C 6.93 g/m*3 7.6 C 1.6 km/h
344 01-04-2021 04:35:00 7.7 C 6.97 g/m*3 7.7 C 4.8 km/h
345 01-04-2021 04:40:00 7.7 C 6.89 g/m*3 7.7 C 1.6 km/h
346 01-04-2021 04:45:00 7.8 C 6.94 g/m*3 7.8 C 1.6 km/h
347 01-04-2021 04:50:00 7.8 C 6.94 g/m*3 7.8 C 0 km/h
348 01-04-2021 04:55:00 7.6 C 6.77 g/m*3 7.6 C 0 km/h
349 01-04-2021 05:00:00 7.5 C 6.8 g/m*3 7.5 C 0 km/h
350 01-04-2021 05:05:00 7.4 C 6.76 g/m*3 7.4 C 1.6 km/h
Sensor: Nr:Datum:Temp:Abs-Feuchte:Windchill:Wind:
Aussen-T/F 351 01-04-2021 05:10:00 7.3 C 6.72 g/m*3 7.3 C 3.2 km/h
352 01-04-2021 05:15:00 7.3 C 6.79 g/m*3 7.3 C 0 km/h
353 01-04-2021 05:20:00 7.2 C 6.75 g/m*3 7.2 C 0 km/h
354 01-04-2021 05:25:00 7.1 C 6.71 g/m*3 7.1 C 0 km/h
355 01-04-2021 05:30:00 7.1 C 6.79 g/m*3 7.1 C 1.6 km/h
356 01-04-2021 05:35:00 7.2 C 6.83 g/m*3 7.2 C 0 km/h
357 01-04-2021 05:40:00 7.2 C 6.83 g/m*3 7.2 C 3.2 km/h
358 01-04-2021 05:45:00 7.3 C 6.87 g/m*3 7.3 C 0 km/h
359 01-04-2021 05:50:00 7.3 C 6.87 g/m*3 7.3 C 0 km/h
360 01-04-2021 05:55:00 7.3 C 6.79 g/m*3 7.3 C 0 km/h
361 01-04-2021 06:00:00 7.3 C 6.79 g/m*3 7.3 C 3.2 km/h
362 01-04-2021 06:05:00 7.3 C 6.87 g/m*3 7.3 C 3.2 km/h
363 01-04-2021 06:10:00 7.3 C 6.79 g/m*3 7.3 C 0 km/h
364 01-04-2021 06:15:00 7.2 C 6.75 g/m*3 7.2 C 0 km/h
365 01-04-2021 06:20:00 7.2 C 6.83 g/m*3 7.2 C 0 km/h
366 01-04-2021 06:25:00 7.2 C 6.83 g/m*3 7.2 C 0 km/h
367 01-04-2021 06:30:00 7.2 C 6.83 g/m*3 7.2 C 0 km/h
368 01-04-2021 06:35:00 7.1 C 6.79 g/m*3 7.1 C 0 km/h
369 01-04-2021 06:40:00 7.1 C 6.79 g/m*3 7.1 C 0 km/h
370 01-04-2021 06:45:00 6.9 C 6.7 g/m*3 6.9 C 0 km/h
371 01-04-2021 06:50:00 6.8 C 6.65 g/m*3 6.8 C 1.6 km/h
372 01-04-2021 06:55:00 6.8 C 6.73 g/m*3 6.8 C 0 km/h
373 01-04-2021 07:00:00 6.7 C 6.69 g/m*3 6.7 C 0 km/h
374 01-04-2021 07:05:00 6.7 C 6.69 g/m*3 6.7 C 0 km/h
375 01-04-2021 07:10:00 6.6 C 6.64 g/m*3 6.6 C 0 km/h
Sensor: Nr:Datum:Temp:Abs-Feuchte:Windchill:Wind:
Aussen-T/F 376 01-04-2021 07:15:00 6.6 C 6.64 g/m*3 6.6 C 0 km/h
377 01-04-2021 07:20:00 6.6 C 6.64 g/m*3 6.6 C 0 km/h
378 01-04-2021 07:25:00 6.5 C 6.67 g/m*3 6.5 C 0 km/h
379 01-04-2021 07:30:00 6.6 C 6.72 g/m*3 6.6 C 0 km/h
380 01-04-2021 07:35:00 6.7 C 6.76 g/m*3 6.7 C 0 km/h
381 01-04-2021 07:40:00 6.8 C 6.81 g/m*3 6.8 C 1.6 km/h
382 01-04-2021 07:45:00 6.9 C 6.85 g/m*3 6.9 C 1.6 km/h
383 01-04-2021 07:50:00 7 C 6.9 g/m*3 7 C 0 km/h
384 01-04-2021 07:55:00 7.1 C 6.94 g/m*3 7.1 C 0 km/h
385 01-04-2021 08:00:00 7.1 C 6.94 g/m*3 7.1 C 0 km/h
386 01-04-2021 08:05:00 7.1 C 6.94 g/m*3 7.1 C 0 km/h
387 01-04-2021 08:10:00 7.2 C 6.99 g/m*3 7.2 C 0 km/h
388 01-04-2021 08:15:00 7.2 C 6.99 g/m*3 7.2 C 0 km/h
389 01-04-2021 08:20:00 7.3 C 7.03 g/m*3 7.3 C 0 km/h
390 01-04-2021 08:25:00 7.3 C 7.03 g/m*3 7.3 C 0 km/h
391 01-04-2021 08:30:00 7.5 C 7.12 g/m*3 7.5 C 1.6 km/h
392 01-04-2021 08:35:00 7.6 C 7.17 g/m*3 7.6 C 0 km/h
393 01-04-2021 08:40:00 7.7 C 7.22 g/m*3 7.7 C 0 km/h
394 01-04-2021 08:45:00 7.8 C 7.18 g/m*3 7.8 C 0 km/h
395 01-04-2021 08:50:00 7.8 C 7.18 g/m*3 7.8 C 0 km/h
396 01-04-2021 08:55:00 8 C 7.28 g/m*3 8 C 3.2 km/h
397 01-04-2021 09:00:00 8.1 C 7.24 g/m*3 8.1 C 0 km/h
398 01-04-2021 09:05:00 8.3 C 7.33 g/m*3 8.3 C 3.2 km/h
399 01-04-2021 09:10:00 8.4 C 7.3 g/m*3 8.4 C 4.8 km/h
400 01-04-2021 09:15:00 8.6 C 7.3 g/m*3 8.6 C 3.2 km/h
Sensor: Nr:Datum:Temp:Abs-Feuchte:Windchill:Wind:
Aussen-T/F 401 01-04-2021 09:20:00 8.7 C 7.35 g/m*3 8.7 C 0 km/h
402 01-04-2021 09:25:00 8.8 C 7.4 g/m*3 8.8 C 0 km/h
403 01-04-2021 09:30:00 9.1 C 7.45 g/m*3 9.1 C 3.2 km/h
404 01-04-2021 09:35:00 9.2 C 7.5 g/m*3 9.2 C 1.6 km/h
405 01-04-2021 09:40:00 9.3 C 7.46 g/m*3 9.3 C 1.6 km/h
406 01-04-2021 09:45:00 9.4 C 7.42 g/m*3 9.4 C 1.6 km/h
407 01-04-2021 09:50:00 9.6 C 7.6 g/m*3 9.6 C 3.2 km/h
408 01-04-2021 09:55:00 9.7 C 7.56 g/m*3 9.7 C 3.2 km/h
409 01-04-2021 10:00:00 9.9 C 7.56 g/m*3 9.9 C 1.6 km/h
410 01-04-2021 10:05:00 10.1 C 7.66 g/m*3 10.1 C 0 km/h
411 01-04-2021 10:10:00 10.2 C 7.71 g/m*3 10.2 C 1.6 km/h
412 01-04-2021 10:15:00 10.4 C 7.71 g/m*3 10.4 C 0 km/h
413 01-04-2021 10:20:00 10.6 C 7.81 g/m*3 10.6 C 1.6 km/h
414 01-04-2021 10:25:00 10.6 C 7.71 g/m*3 10.6 C 3.2 km/h
415 01-04-2021 10:30:00 10.7 C 7.76 g/m*3 10.7 C 3.2 km/h
416 01-04-2021 10:35:00 10.8 C 7.81 g/m*3 10.8 C 0 km/h
417 01-04-2021 10:40:00 10.9 C 7.86 g/m*3 10.9 C 0 km/h
418 01-04-2021 10:45:00 11.1 C 7.86 g/m*3 11.1 C 0 km/h
419 01-04-2021 10:50:00 11.2 C 7.8 g/m*3 11.2 C 0 km/h
420 01-04-2021 10:55:00 11.5 C 7.95 g/m*3 11.5 C 0 km/h
421 01-04-2021 11:00:00 11.7 C 7.95 g/m*3 11.7 C 0 km/h
422 01-04-2021 11:05:00 12.1 C 8.04 g/m*3 12.1 C 0 km/h
423 01-04-2021 11:10:00 12.3 C 7.93 g/m*3 12.3 C 0 km/h
424 01-04-2021 11:15:00 12.6 C 8.08 g/m*3 12.6 C 0 km/h
425 01-04-2021 11:20:00 12.8 C 8.06 g/m*3 12.8 C 0 km/h
Sensor: Nr:Datum:Temp:Abs-Feuchte:Windchill:Wind:
Aussen-T/F 426 01-04-2021 11:25:00 13.1 C 8.22 g/m*3 13.1 C 0 km/h
427 01-04-2021 11:30:00 13.3 C 8.2 g/m*3 13.3 C 0 km/h
428 01-04-2021 11:35:00 13.6 C 8.36 g/m*3 13.6 C 0 km/h
429 01-04-2021 11:40:00 13.9 C 8.27 g/m*3 13.9 C 0 km/h
430 01-04-2021 11:45:00 14.2 C 8.43 g/m*3 14.2 C 0 km/h
431 01-04-2021 11:50:00 14.4 C 8.65 g/m*3 14.4 C 0 km/h
432 01-04-2021 11:55:00 14.8 C 8.74 g/m*3 14.8 C 1.6 km/h
433 01-04-2021 12:00:00 15.1 C 8.77 g/m*3 15.1 C 0 km/h
434 01-04-2021 12:05:00 15.3 C 8.88 g/m*3 15.3 C 0 km/h
435 01-04-2021 12:10:00 15.6 C 9.04 g/m*3 15.6 C 0 km/h
436 01-04-2021 12:15:00 16 C 8.99 g/m*3 16 C 0 km/h
437 01-04-2021 12:20:00 16.3 C 8.88 g/m*3 16.3 C 1.6 km/h
438 01-04-2021 12:25:00 16.8 C 8.72 g/m*3 16.8 C 1.6 km/h
439 01-04-2021 12:30:00 17.3 C 9.13 g/m*3 17.3 C 0 km/h
440 01-04-2021 12:35:00 17.8 C 8.95 g/m*3 17.8 C 4.8 km/h
441 01-04-2021 12:40:00 18.3 C 8.44 g/m*3 18.3 C 4.8 km/h
442 01-04-2021 12:45:00 18.7 C 8.65 g/m*3 18.7 C 4.8 km/h
443 01-04-2021 12:50:00 19.1 C 8.69 g/m*3 19.1 C 4.8 km/h
444 01-04-2021 12:55:00 19.3 C 8.46 g/m*3 19.3 C 6.4 km/h
445 01-04-2021 13:00:00 19.7 C 8.49 g/m*3 19.7 C 1.6 km/h
446 01-04-2021 13:05:00 19.9 C 8.42 g/m*3 19.9 C 6.4 km/h
447 01-04-2021 13:10:00 20.2 C 7.87 g/m*3 20.2 C 12.9 km/h
448 01-04-2021 13:15:00 20.3 C 8.27 g/m*3 20.3 C 9.7 km/h
449 01-04-2021 13:20:00 20.6 C 8.41 g/m*3 20.6 C 9.7 km/h
450 01-04-2021 13:25:00 20.8 C 7.97 g/m*3 20.8 C 9.7 km/h
Sensor: Nr:Datum:Temp:Abs-Feuchte:Windchill:Wind:
Aussen-T/F 451 01-04-2021 13:30:00 20.9 C 7.83 g/m*3 20.9 C 9.7 km/h
452 01-04-2021 13:35:00 21.1 C 7.92 g/m*3 21.1 C 12.9 km/h
453 01-04-2021 13:40:00 21.1 C 7.74 g/m*3 21.1 C 12.9 km/h
454 01-04-2021 13:45:00 21.2 C 7.97 g/m*3 21.2 C 14.5 km/h
455 01-04-2021 13:50:00 21.3 C 7.83 g/m*3 21.3 C 8.1 km/h
456 01-04-2021 13:55:00 21.3 C 7.83 g/m*3 21.3 C 12.9 km/h
457 01-04-2021 14:00:00 21.4 C 7.87 g/m*3 21.4 C 6.4 km/h
458 01-04-2021 14:05:00 21.6 C 7.97 g/m*3 21.6 C 11.3 km/h
459 01-04-2021 14:10:00 21.7 C 8.01 g/m*3 21.7 C 11.3 km/h
460 01-04-2021 14:15:00 21.8 C 7.87 g/m*3 21.8 C 16.1 km/h
461 01-04-2021 14:20:00 21.8 C 7.67 g/m*3 21.8 C 17.7 km/h
462 01-04-2021 14:25:00 21.9 C 7.91 g/m*3 21.9 C 17.7 km/h
463 01-04-2021 14:30:00 22.1 C 8 g/m*3 22.1 C 11.3 km/h
464 01-04-2021 14:35:00 22.2 C 7.66 g/m*3 22.2 C 12.9 km/h
465 01-04-2021 14:40:00 22.2 C 7.85 g/m*3 22.2 C 11.3 km/h
466 01-04-2021 14:45:00 22.2 C 8.05 g/m*3 22.2 C 12.9 km/h
467 01-04-2021 14:50:00 22.3 C 7.9 g/m*3 22.3 C 12.9 km/h
468 01-04-2021 14:55:00 22.4 C 7.75 g/m*3 22.4 C 11.3 km/h
469 01-04-2021 15:00:00 22.4 C 7.75 g/m*3 22.4 C 12.9 km/h
470 01-04-2021 15:05:00 22.3 C 7.7 g/m*3 22.3 C 14.5 km/h
471 01-04-2021 15:10:00 22.4 C 7.94 g/m*3 22.4 C 11.3 km/h
472 01-04-2021 15:15:00 22.5 C 7.59 g/m*3 22.5 C 12.9 km/h
473 01-04-2021 15:20:00 22.6 C 7.83 g/m*3 22.6 C 14.5 km/h
474 01-04-2021 15:25:00 22.6 C 8.04 g/m*3 22.6 C 9.7 km/h
475 01-04-2021 15:30:00 22.7 C 7.88 g/m*3 22.7 C 8.1 km/h
Sensor: Nr:Datum:Temp:Abs-Feuchte:Windchill:Wind:
Aussen-T/F 476 01-04-2021 15:35:00 22.7 C 7.88 g/m*3 22.7 C 11.3 km/h
477 01-04-2021 15:40:00 22.7 C 7.88 g/m*3 22.7 C 12.9 km/h
478 01-04-2021 15:45:00 22.7 C 7.88 g/m*3 22.7 C 12.9 km/h
479 01-04-2021 15:50:00 22.7 C 7.88 g/m*3 22.7 C 11.3 km/h
480 01-04-2021 15:55:00 22.7 C 8.08 g/m*3 22.7 C 6.4 km/h
481 01-04-2021 16:00:00 22.7 C 7.88 g/m*3 22.7 C 14.5 km/h
482 01-04-2021 16:05:00 22.7 C 8.08 g/m*3 22.7 C 16.1 km/h
483 01-04-2021 16:10:00 22.7 C 7.68 g/m*3 22.7 C 14.5 km/h
484 01-04-2021 16:15:00 22.8 C 7.92 g/m*3 22.8 C 12.9 km/h
485 01-04-2021 16:20:00 22.8 C 7.72 g/m*3 22.8 C 14.5 km/h
486 01-04-2021 16:25:00 22.8 C 8.13 g/m*3 22.8 C 11.3 km/h
487 01-04-2021 16:30:00 22.8 C 8.13 g/m*3 22.8 C 16.1 km/h
488 01-04-2021 16:35:00 22.9 C 8.17 g/m*3 22.9 C 14.5 km/h
489 01-04-2021 16:40:00 22.9 C 8.17 g/m*3 22.9 C 12.9 km/h
490 01-04-2021 16:45:00 23.1 C 8.27 g/m*3 23.1 C 16.1 km/h
491 01-04-2021 16:50:00 23 C 8.43 g/m*3 23 C 19.3 km/h
492 01-04-2021 16:55:00 22.9 C 8.17 g/m*3 22.9 C 19.3 km/h
493 01-04-2021 17:00:00 22.9 C 8.58 g/m*3 22.9 C 11.3 km/h
494 01-04-2021 17:05:00 23.2 C 8.52 g/m*3 23.2 C 14.5 km/h
495 01-04-2021 17:10:00 23.1 C 8.48 g/m*3 23.1 C 16.1 km/h
496 01-04-2021 17:15:00 22.8 C 8.33 g/m*3 22.8 C 12.9 km/h
497 01-04-2021 17:20:00 22.8 C 8.33 g/m*3 22.8 C 17.7 km/h
498 01-04-2021 17:25:00 22.8 C 8.53 g/m*3 22.8 C 19.3 km/h
499 01-04-2021 17:30:00 22.7 C 8.49 g/m*3 22.7 C 14.5 km/h
500 01-04-2021 17:35:00 22.7 C 8.49 g/m*3 22.7 C 14.5 km/h
Sensor: Nr:Datum:Temp:Abs-Feuchte:Windchill:Wind:
Aussen-T/F 501 01-04-2021 17:40:00 22.6 C 8.64 g/m*3 22.6 C 16.1 km/h
502 01-04-2021 17:45:00 22.4 C 8.54 g/m*3 22.4 C 14.5 km/h
503 01-04-2021 17:50:00 22.4 C 8.54 g/m*3 22.4 C 12.9 km/h
504 01-04-2021 17:55:00 22.3 C 8.49 g/m*3 22.3 C 14.5 km/h
505 01-04-2021 18:00:00 22.2 C 8.44 g/m*3 22.2 C 16.1 km/h
506 01-04-2021 18:05:00 22.1 C 8.59 g/m*3 22.1 C 9.7 km/h
507 01-04-2021 18:10:00 21.9 C 8.49 g/m*3 21.9 C 16.1 km/h
508 01-04-2021 18:15:00 21.8 C 8.83 g/m*3 21.8 C 14.5 km/h
509 01-04-2021 18:20:00 21.7 C 8.58 g/m*3 21.7 C 14.5 km/h
510 01-04-2021 18:25:00 21.6 C 8.53 g/m*3 21.6 C 16.1 km/h
511 01-04-2021 18:30:00 21.3 C 8.57 g/m*3 21.3 C 19.3 km/h
512 01-04-2021 18:35:00 21 C 8.61 g/m*3 21 C 19.3 km/h
513 01-04-2021 18:40:00 20.7 C 8.64 g/m*3 20.7 C 16.1 km/h
514 01-04-2021 18:45:00 20.6 C 8.77 g/m*3 20.6 C 11.3 km/h
515 01-04-2021 18:50:00 20.5 C 8.9 g/m*3 20.5 C 16.1 km/h
516 01-04-2021 18:55:00 20.3 C 8.79 g/m*3 20.3 C 20.9 km/h
517 01-04-2021 19:00:00 20.1 C 8.87 g/m*3 20.1 C 16.1 km/h
518 01-04-2021 19:05:00 19.8 C 9.05 g/m*3 19.8 C 12.9 km/h
519 01-04-2021 19:10:00 19.6 C 8.95 g/m*3 19.6 C 17.7 km/h
520 01-04-2021 19:15:00 19.3 C 8.96 g/m*3 19.3 C 9.7 km/h
521 01-04-2021 19:20:00 19.2 C 9.07 g/m*3 19.2 C 20.9 km/h
522 01-04-2021 19:25:00 18.9 C 8.91 g/m*3 18.9 C 11.3 km/h
523 01-04-2021 19:30:00 18.7 C 8.81 g/m*3 18.7 C 12.9 km/h
524 01-04-2021 19:35:00 18.5 C 8.86 g/m*3 18.5 C 11.3 km/h
525 01-04-2021 19:40:00 18.3 C 8.91 g/m*3 18.3 C 8.1 km/h
Sensor: Nr:Datum:Temp:Abs-Feuchte:Windchill:Wind:
Aussen-T/F 526 01-04-2021 19:45:00 18.1 C 8.81 g/m*3 18.1 C 17.7 km/h
527 01-04-2021 19:50:00 17.8 C 8.5 g/m*3 17.8 C 9.7 km/h
528 01-04-2021 19:55:00 17.6 C 8.25 g/m*3 17.6 C 11.3 km/h
529 01-04-2021 20:00:00 17.4 C 8.3 g/m*3 17.4 C 19.3 km/h
530 01-04-2021 20:05:00 17.3 C 8.25 g/m*3 17.3 C 12.9 km/h
531 01-04-2021 20:10:00 17.2 C 8.2 g/m*3 17.2 C 8.1 km/h
532 01-04-2021 20:15:00 17 C 8.1 g/m*3 17 C 6.4 km/h
533 01-04-2021 20:20:00 16.9 C 8.2 g/m*3 16.9 C 19.3 km/h
534 01-04-2021 20:25:00 16.8 C 8.15 g/m*3 16.8 C 14.5 km/h
535 01-04-2021 20:30:00 16.7 C 8.1 g/m*3 16.7 C 14.5 km/h
536 01-04-2021 20:35:00 16.6 C 8.19 g/m*3 16.6 C 12.9 km/h
537 01-04-2021 20:40:00 16.5 C 8.14 g/m*3 16.5 C 11.3 km/h
538 01-04-2021 20:45:00 16.4 C 8.23 g/m*3 16.4 C 11.3 km/h
539 01-04-2021 20:50:00 16.3 C 8.19 g/m*3 16.3 C 12.9 km/h
540 01-04-2021 20:55:00 16.2 C 8.27 g/m*3 16.2 C 8.1 km/h
541 01-04-2021 21:00:00 16.1 C 8.22 g/m*3 16.1 C 14.5 km/h
542 01-04-2021 21:05:00 15.9 C 8.26 g/m*3 15.9 C 16.1 km/h
543 01-04-2021 21:10:00 15.9 C 8.4 g/m*3 15.9 C 11.3 km/h
544 01-04-2021 21:15:00 15.7 C 8.3 g/m*3 15.7 C 8.1 km/h
545 01-04-2021 21:20:00 15.6 C 8.38 g/m*3 15.6 C 8.1 km/h
546 01-04-2021 21:25:00 15.4 C 8.28 g/m*3 15.4 C 17.7 km/h
547 01-04-2021 21:30:00 15.3 C 8.36 g/m*3 15.3 C 14.5 km/h
548 01-04-2021 21:35:00 15.2 C 8.31 g/m*3 15.2 C 12.9 km/h
549 01-04-2021 21:40:00 15.1 C 8.26 g/m*3 15.1 C 12.9 km/h
550 01-04-2021 21:45:00 14.9 C 8.28 g/m*3 14.9 C 11.3 km/h
Sensor: Nr:Datum:Temp:Abs-Feuchte:Windchill:Wind:
Aussen-T/F 551 01-04-2021 21:50:00 14.8 C 8.23 g/m*3 14.8 C 14.5 km/h
552 01-04-2021 21:55:00 14.7 C 8.31 g/m*3 14.7 C 12.9 km/h
553 01-04-2021 22:00:00 14.6 C 8.26 g/m*3 14.6 C 20.9 km/h
554 01-04-2021 22:05:00 14.5 C 8.21 g/m*3 14.5 C 11.3 km/h
555 01-04-2021 22:10:00 14.3 C 8.23 g/m*3 14.3 C 11.3 km/h
556 01-04-2021 22:15:00 14.2 C 8.18 g/m*3 14.2 C 3.2 km/h
557 01-04-2021 22:20:00 14 C 8.2 g/m*3 14 C 11.3 km/h
558 01-04-2021 22:25:00 13.9 C 8.15 g/m*3 13.9 C 8.1 km/h
559 01-04-2021 22:30:00 13.7 C 8.05 g/m*3 13.7 C 8.1 km/h
560 01-04-2021 22:35:00 13.6 C 8 g/m*3 13.6 C 6.4 km/h
561 01-04-2021 22:40:00 13.5 C 7.95 g/m*3 13.5 C 8.1 km/h
562 01-04-2021 22:45:00 13.3 C 7.86 g/m*3 13.3 C 3.2 km/h
563 01-04-2021 22:50:00 13.2 C 7.81 g/m*3 13.2 C 8.1 km/h
564 01-04-2021 22:55:00 13.1 C 7.76 g/m*3 13.1 C 9.7 km/h
565 01-04-2021 23:00:00 13 C 7.71 g/m*3 13 C 8.1 km/h
566 01-04-2021 23:05:00 12.9 C 7.55 g/m*3 12.9 C 8.1 km/h
567 01-04-2021 23:10:00 12.8 C 7.5 g/m*3 12.8 C 8.1 km/h
568 01-04-2021 23:15:00 12.7 C 7.46 g/m*3 12.7 C 6.4 km/h
569 01-04-2021 23:20:00 12.5 C 7.48 g/m*3 12.5 C 1.6 km/h
570 01-04-2021 23:25:00 12.3 C 7.28 g/m*3 12.3 C 6.4 km/h
571 01-04-2021 23:30:00 12.2 C 7.23 g/m*3 12.2 C 3.2 km/h
572 01-04-2021 23:35:00 12 C 7.25 g/m*3 12 C 0 km/h
573 01-04-2021 23:40:00 11.7 C 7.11 g/m*3 11.7 C 0 km/h
574 01-04-2021 23:45:00 11.2 C 6.99 g/m*3 11.2 C 1.6 km/h
575 01-04-2021 23:50:00 10.8 C 6.92 g/m*3 10.8 C 1.6 km/h
Sensor: Nr:Datum:Temp:Abs-Feuchte:Windchill:Wind:
Aussen-T/F 576 01-04-2021 23:55:00 10.5 C 6.89 g/m*3 10.5 C 1.6 km/h
577 02-04-2021 00:00:00 10.2 C 6.85 g/m*3 10.2 C 4.8 km/h
578 02-04-2021 00:05:00 9.9 C 6.63 g/m*3 9.9 C 3.2 km/h
579 02-04-2021 00:10:00 9.9 C 6.63 g/m*3 8.87 C 8.1 km/h
580 02-04-2021 00:15:00 10.1 C 6.52 g/m*3 8.31 C 12.9 km/h
581 02-04-2021 00:20:00 10.3 C 6.42 g/m*3 8.16 C 16.1 km/h
582 02-04-2021 00:25:00 10.5 C 6.4 g/m*3 9.57 C 8.1 km/h
583 02-04-2021 00:30:00 10.5 C 6.4 g/m*3 9.02 C 11.3 km/h
584 02-04-2021 00:35:00 10.5 C 6.3 g/m*3 9.28 C 9.7 km/h
585 02-04-2021 00:40:00 10.4 C 6.26 g/m*3 8.9 C 11.3 km/h
586 02-04-2021 00:45:00 10.3 C 6.32 g/m*3 9.34 C 8.1 km/h
587 02-04-2021 00:50:00 10.2 C 6.28 g/m*3 10.2 C 3.2 km/h
588 02-04-2021 00:55:00 9.8 C 6.22 g/m*3 9.8 C 0 km/h
589 02-04-2021 01:00:00 9.4 C 6.15 g/m*3 9.4 C 0 km/h
590 02-04-2021 01:05:00 8.9 C 6.13 g/m*3 8.9 C 1.6 km/h
591 02-04-2021 01:10:00 8.5 C 6.06 g/m*3 8.5 C 1.6 km/h
592 02-04-2021 01:15:00 8.2 C 6.03 g/m*3 8.2 C 0 km/h
593 02-04-2021 01:20:00 7.8 C 5.96 g/m*3 7.8 C 3.2 km/h
594 02-04-2021 01:25:00 7.9 C 6 g/m*3 6.52 C 8.1 km/h
595 02-04-2021 01:30:00 8.3 C 6.07 g/m*3 6.99 C 8.1 km/h
596 02-04-2021 01:35:00 8.4 C 6.02 g/m*3 7.11 C 8.1 km/h
597 02-04-2021 01:40:00 8.4 C 5.94 g/m*3 8.4 C 1.6 km/h
598 02-04-2021 01:45:00 8.2 C 5.86 g/m*3 8.2 C 1.6 km/h
599 02-04-2021 01:50:00 7.8 C 5.79 g/m*3 6.83 C 6.4 km/h
600 02-04-2021 01:55:00 7.6 C 5.8 g/m*3 7.6 C 3.2 km/h
Sensor: Nr:Datum:Temp:Abs-Feuchte:Windchill:Wind:
Aussen-T/F 601 02-04-2021 02:00:00 7.3 C 5.77 g/m*3 7.3 C 3.2 km/h
602 02-04-2021 02:05:00 7 C 5.73 g/m*3 7 C 3.2 km/h
603 02-04-2021 02:10:00 6.8 C 5.74 g/m*3 6.8 C 3.2 km/h
604 02-04-2021 02:15:00 6.7 C 5.7 g/m*3 6.7 C 1.6 km/h
605 02-04-2021 02:20:00 6.6 C 5.74 g/m*3 6.6 C 0 km/h
606 02-04-2021 02:25:00 6.4 C 5.74 g/m*3 6.4 C 1.6 km/h
607 02-04-2021 02:30:00 6.2 C 5.66 g/m*3 6.2 C 1.6 km/h
608 02-04-2021 02:35:00 6 C 5.59 g/m*3 6 C 1.6 km/h
609 02-04-2021 02:40:00 5.8 C 5.59 g/m*3 5.8 C 0 km/h
610 02-04-2021 02:45:00 5.6 C 5.59 g/m*3 5.6 C 0 km/h
611 02-04-2021 02:50:00 5.4 C 5.58 g/m*3 5.4 C 0 km/h
612 02-04-2021 02:55:00 5.3 C 5.61 g/m*3 5.3 C 0 km/h
613 02-04-2021 03:00:00 5.3 C 5.61 g/m*3 5.3 C 1.6 km/h
614 02-04-2021 03:05:00 5.2 C 5.65 g/m*3 5.2 C 1.6 km/h
615 02-04-2021 03:10:00 5.1 C 5.61 g/m*3 5.1 C 1.6 km/h
616 02-04-2021 03:15:00 5.1 C 5.61 g/m*3 5.1 C 1.6 km/h
617 02-04-2021 03:20:00 4.9 C 5.6 g/m*3 4.9 C 0 km/h
618 02-04-2021 03:25:00 4.8 C 5.57 g/m*3 4.8 C 0 km/h
619 02-04-2021 03:30:00 4.7 C 5.53 g/m*3 4.7 C 3.2 km/h
620 02-04-2021 03:35:00 4.7 C 5.6 g/m*3 4.7 C 3.2 km/h
621 02-04-2021 03:40:00 4.7 C 5.6 g/m*3 4.7 C 3.2 km/h
622 02-04-2021 03:45:00 4.6 C 5.56 g/m*3 4.6 C 0 km/h
623 02-04-2021 03:50:00 4.6 C 5.56 g/m*3 4.6 C 3.2 km/h
624 02-04-2021 03:55:00 4.5 C 5.59 g/m*3 4.5 C 0 km/h
625 02-04-2021 04:00:00 4.4 C 5.55 g/m*3 4.4 C 0 km/h
Sensor: Nr:Datum:Temp:Abs-Feuchte:Windchill:Wind:
Aussen-T/F 626 02-04-2021 04:05:00 4.4 C 5.55 g/m*3 4.4 C 0 km/h
627 02-04-2021 04:10:00 4.4 C 5.55 g/m*3 4.4 C 0 km/h
628 02-04-2021 04:15:00 4.4 C 5.62 g/m*3 4.4 C 4.8 km/h
629 02-04-2021 04:20:00 4.5 C 5.65 g/m*3 3.02 C 6.4 km/h
630 02-04-2021 04:25:00 4.6 C 5.69 g/m*3 4.6 C 3.2 km/h
631 02-04-2021 04:30:00 4.6 C 5.69 g/m*3 4.6 C 1.6 km/h
632 02-04-2021 04:35:00 4.7 C 5.73 g/m*3 4.7 C 3.2 km/h
633 02-04-2021 04:40:00 4.6 C 5.62 g/m*3 4.6 C 4.8 km/h
634 02-04-2021 04:45:00 4.5 C 5.59 g/m*3 4.5 C 3.2 km/h
635 02-04-2021 04:50:00 4.4 C 5.55 g/m*3 4.4 C 3.2 km/h
636 02-04-2021 04:55:00 4.3 C 5.51 g/m*3 4.3 C 4.8 km/h
637 02-04-2021 05:00:00 4.3 C 5.58 g/m*3 4.3 C 4.8 km/h
638 02-04-2021 05:05:00 4.3 C 5.58 g/m*3 4.3 C 4.8 km/h
639 02-04-2021 05:10:00 4.3 C 5.58 g/m*3 4.3 C 3.2 km/h
640 02-04-2021 05:15:00 4.2 C 5.48 g/m*3 4.2 C 0 km/h
641 02-04-2021 05:20:00 4.1 C 5.5 g/m*3 4.1 C 4.8 km/h
642 02-04-2021 05:25:00 4 C 5.47 g/m*3 4 C 1.6 km/h
643 02-04-2021 05:30:00 3.9 C 5.49 g/m*3 3.9 C 4.8 km/h
644 02-04-2021 05:35:00 3.8 C 5.46 g/m*3 3.8 C 3.2 km/h
645 02-04-2021 05:40:00 3.8 C 5.46 g/m*3 3.8 C 0 km/h
646 02-04-2021 05:45:00 3.7 C 5.48 g/m*3 3.7 C 4.8 km/h
647 02-04-2021 05:50:00 3.7 C 5.48 g/m*3 3.7 C 4.8 km/h
648 02-04-2021 05:55:00 3.7 C 5.55 g/m*3 3.7 C 1.6 km/h
649 02-04-2021 06:00:00 3.7 C 5.48 g/m*3 3.7 C 0 km/h
650 02-04-2021 06:05:00 3.6 C 5.45 g/m*3 3.6 C 1.6 km/h
Sensor: Nr:Datum:Temp:Abs-Feuchte:Windchill:Wind:
Aussen-T/F 651 02-04-2021 06:10:00 3.7 C 5.55 g/m*3 3.7 C 4.8 km/h
652 02-04-2021 06:15:00 3.7 C 5.55 g/m*3 3.7 C 1.6 km/h
653 02-04-2021 06:20:00 3.7 C 5.55 g/m*3 2.09 C 6.4 km/h
654 02-04-2021 06:25:00 3.9 C 5.68 g/m*3 3.9 C 4.8 km/h
655 02-04-2021 06:30:00 4.1 C 5.76 g/m*3 4.1 C 4.8 km/h
656 02-04-2021 06:35:00 4.2 C 5.73 g/m*3 4.2 C 0 km/h
657 02-04-2021 06:40:00 4.3 C 5.77 g/m*3 2.29 C 8.1 km/h
658 02-04-2021 06:45:00 4.3 C 5.77 g/m*3 4.3 C 1.6 km/h
659 02-04-2021 06:50:00 4.3 C 5.71 g/m*3 4.3 C 0 km/h
660 02-04-2021 06:55:00 4.2 C 5.67 g/m*3 4.2 C 0 km/h
661 02-04-2021 07:00:00 4.1 C 5.63 g/m*3 4.1 C 0 km/h
662 02-04-2021 07:05:00 4.2 C 5.73 g/m*3 4.2 C 0 km/h
663 02-04-2021 07:10:00 4.2 C 5.73 g/m*3 4.2 C 1.6 km/h
664 02-04-2021 07:15:00 4.3 C 5.84 g/m*3 4.3 C 3.2 km/h
665 02-04-2021 07:20:00 4.4 C 5.88 g/m*3 4.4 C 1.6 km/h
666 02-04-2021 07:25:00 4.5 C 5.92 g/m*3 4.5 C 3.2 km/h
667 02-04-2021 07:30:00 4.6 C 5.96 g/m*3 4.6 C 0 km/h
668 02-04-2021 07:35:00 4.6 C 5.89 g/m*3 4.6 C 0 km/h
669 02-04-2021 07:40:00 4.7 C 5.93 g/m*3 4.7 C 4.8 km/h
670 02-04-2021 07:45:00 4.7 C 5.93 g/m*3 4.7 C 1.6 km/h
671 02-04-2021 07:50:00 4.8 C 5.97 g/m*3 4.8 C 0 km/h
672 02-04-2021 07:55:00 4.8 C 5.97 g/m*3 4.8 C 1.6 km/h
673 02-04-2021 08:00:00 4.9 C 6.01 g/m*3 4.9 C 0 km/h
674 02-04-2021 08:05:00 4.9 C 5.94 g/m*3 4.9 C 0 km/h
675 02-04-2021 08:10:00 5 C 5.98 g/m*3 5 C 0 km/h
Sensor: Nr:Datum:Temp:Abs-Feuchte:Windchill:Wind:
Aussen-T/F 676 02-04-2021 08:15:00 5 C 5.98 g/m*3 5 C 0 km/h
677 02-04-2021 08:20:00 5.1 C 6.02 g/m*3 5.1 C 0 km/h
678 02-04-2021 08:25:00 5.2 C 6.13 g/m*3 5.2 C 0 km/h
679 02-04-2021 08:30:00 5.2 C 6.06 g/m*3 5.2 C 0 km/h
680 02-04-2021 08:35:00 5.3 C 6.1 g/m*3 5.3 C 0 km/h
681 02-04-2021 08:40:00 5.4 C 6.14 g/m*3 5.4 C 0 km/h
682 02-04-2021 08:45:00 5.5 C 6.18 g/m*3 5.5 C 1.6 km/h
683 02-04-2021 08:50:00 5.6 C 6.22 g/m*3 5.6 C 0 km/h
684 02-04-2021 08:55:00 5.7 C 6.26 g/m*3 5.7 C 0 km/h
685 02-04-2021 09:00:00 5.8 C 6.3 g/m*3 5.8 C 0 km/h
686 02-04-2021 09:05:00 5.8 C 6.23 g/m*3 5.8 C 1.6 km/h
687 02-04-2021 09:10:00 5.9 C 6.27 g/m*3 5.9 C 0 km/h
688 02-04-2021 09:15:00 6 C 6.31 g/m*3 6 C 1.6 km/h
689 02-04-2021 09:20:00 6.1 C 6.28 g/m*3 6.1 C 0 km/h
690 02-04-2021 09:25:00 6.2 C 6.32 g/m*3 6.2 C 0 km/h
691 02-04-2021 09:30:00 6.3 C 6.29 g/m*3 6.3 C 0 km/h
692 02-04-2021 09:35:00 6.3 C 6.22 g/m*3 6.3 C 0 km/h
693 02-04-2021 09:40:00 6.4 C 6.26 g/m*3 6.4 C 0 km/h
694 02-04-2021 09:45:00 6.4 C 6.26 g/m*3 6.4 C 0 km/h
695 02-04-2021 09:50:00 6.5 C 6.22 g/m*3 6.5 C 0 km/h
696 02-04-2021 09:55:00 6.6 C 6.27 g/m*3 6.6 C 1.6 km/h
697 02-04-2021 10:00:00 6.7 C 6.31 g/m*3 6.7 C 0 km/h
698 02-04-2021 10:05:00 6.8 C 6.27 g/m*3 6.8 C 0 km/h
699 02-04-2021 10:10:00 6.9 C 6.24 g/m*3 6.9 C 3.2 km/h
700 02-04-2021 10:15:00 7 C 6.28 g/m*3 7 C 1.6 km/h
Sensor: Nr:Datum:Temp:Abs-Feuchte:Windchill:Wind:
Aussen-T/F 701 02-04-2021 10:20:00 7.1 C 6.24 g/m*3 7.1 C 0 km/h
702 02-04-2021 10:25:00 7.2 C 6.2 g/m*3 7.2 C 4.8 km/h
703 02-04-2021 10:30:00 7.3 C 6.24 g/m*3 7.3 C 3.2 km/h
704 02-04-2021 10:35:00 7.4 C 6.2 g/m*3 5.28 C 11.3 km/h
705 02-04-2021 10:40:00 7.4 C 6.04 g/m*3 5.02 C 12.9 km/h
706 02-04-2021 10:45:00 7.4 C 5.88 g/m*3 4.78 C 14.5 km/h
707 02-04-2021 10:50:00 7.4 C 5.88 g/m*3 5.02 C 12.9 km/h
708 02-04-2021 10:55:00 7.6 C 5.88 g/m*3 5.82 C 9.7 km/h
709 02-04-2021 11:00:00 7.7 C 5.92 g/m*3 6.28 C 8.1 km/h
710 02-04-2021 11:05:00 7.8 C 5.88 g/m*3 6.06 C 9.7 km/h
711 02-04-2021 11:10:00 7.8 C 5.79 g/m*3 6.06 C 9.7 km/h
712 02-04-2021 11:15:00 7.9 C 5.83 g/m*3 5.63 C 12.9 km/h
713 02-04-2021 11:20:00 8.1 C 5.99 g/m*3 6.75 C 8.1 km/h
714 02-04-2021 11:25:00 8.2 C 5.95 g/m*3 6.54 C 9.7 km/h
715 02-04-2021 11:30:00 8.3 C 5.9 g/m*3 6.66 C 9.7 km/h
716 02-04-2021 11:35:00 8.3 C 5.9 g/m*3 5.89 C 14.5 km/h
717 02-04-2021 11:40:00 8.4 C 6.02 g/m*3 6.24 C 12.9 km/h
718 02-04-2021 11:45:00 8.5 C 5.98 g/m*3 7.22 C 8.1 km/h
719 02-04-2021 11:50:00 8.6 C 5.93 g/m*3 6.73 C 11.3 km/h
720 02-04-2021 11:55:00 8.6 C 5.84 g/m*3 6.73 C 11.3 km/h
721 02-04-2021 12:00:00 8.6 C 5.93 g/m*3 7.34 C 8.1 km/h
722 02-04-2021 12:05:00 8.8 C 6.01 g/m*3 7.25 C 9.7 km/h
723 02-04-2021 12:10:00 8.8 C 6.01 g/m*3 7.58 C 8.1 km/h
724 02-04-2021 12:15:00 8.9 C 5.96 g/m*3 6.85 C 12.9 km/h
725 02-04-2021 12:20:00 9 C 5.99 g/m*3 6.97 C 12.9 km/h
Sensor: Nr:Datum:Temp:Abs-Feuchte:Windchill:Wind:
Aussen-T/F 726 02-04-2021 12:25:00 9.1 C 5.94 g/m*3 6.48 C 17.7 km/h
727 02-04-2021 12:30:00 9.2 C 5.89 g/m*3 7.21 C 12.9 km/h
728 02-04-2021 12:35:00 9.1 C 5.86 g/m*3 7.09 C 12.9 km/h
729 02-04-2021 12:40:00 9.1 C 5.86 g/m*3 7.61 C 9.7 km/h
730 02-04-2021 12:45:00 9 C 5.82 g/m*3 6.54 C 16.1 km/h
731 02-04-2021 12:50:00 9 C 5.73 g/m*3 6.75 C 14.5 km/h
732 02-04-2021 12:55:00 9.1 C 5.77 g/m*3 7.09 C 12.9 km/h
733 02-04-2021 13:00:00 9.1 C 5.77 g/m*3 7.61 C 9.7 km/h
734 02-04-2021 13:05:00 9.3 C 5.84 g/m*3 7.58 C 11.3 km/h
735 02-04-2021 13:10:00 9.6 C 5.95 g/m*3 7.94 C 11.3 km/h
736 02-04-2021 13:15:00 9.7 C 5.9 g/m*3 8.63 C 8.1 km/h
737 02-04-2021 13:20:00 9.7 C 5.9 g/m*3 9.7 C 4.8 km/h
738 02-04-2021 13:25:00 9.9 C 5.88 g/m*3 8.3 C 11.3 km/h
739 02-04-2021 13:30:00 10.1 C 5.96 g/m*3 8.31 C 12.9 km/h
740 02-04-2021 13:35:00 10.2 C 6 g/m*3 8.92 C 9.7 km/h
741 02-04-2021 13:40:00 10.1 C 5.86 g/m*3 8.1 C 14.5 km/h
742 02-04-2021 13:45:00 10.2 C 6 g/m*3 8.66 C 11.3 km/h
743 02-04-2021 13:50:00 10.3 C 6.03 g/m*3 8.55 C 12.9 km/h
744 02-04-2021 13:55:00 10.4 C 5.98 g/m*3 8.67 C 12.9 km/h
745 02-04-2021 14:00:00 10.6 C 6.05 g/m*3 9.14 C 11.3 km/h
746 02-04-2021 14:05:00 10.6 C 6.05 g/m*3 8.36 C 17.7 km/h
747 02-04-2021 14:10:00 10.7 C 5.99 g/m*3 8.65 C 16.1 km/h
748 02-04-2021 14:15:00 10.6 C 5.95 g/m*3 9.14 C 11.3 km/h
749 02-04-2021 14:20:00 10.8 C 6.23 g/m*3 9.38 C 11.3 km/h
750 02-04-2021 14:25:00 11.1 C 5.94 g/m*3 11.1 C 14.5 km/h
Sensor: Nr:Datum:Temp:Abs-Feuchte:Windchill:Wind:
Aussen-T/F 751 02-04-2021 14:30:00 11.3 C 6.02 g/m*3 11.3 C 14.5 km/h
752 02-04-2021 14:35:00 11.2 C 5.98 g/m*3 11.2 C 17.7 km/h
753 02-04-2021 14:40:00 11.4 C 5.95 g/m*3 11.4 C 20.9 km/h
754 02-04-2021 14:45:00 11.4 C 5.85 g/m*3 11.4 C 11.3 km/h
755 02-04-2021 14:50:00 11.6 C 5.92 g/m*3 11.6 C 14.5 km/h
756 02-04-2021 14:55:00 11.7 C 5.75 g/m*3 11.7 C 22.5 km/h
757 02-04-2021 15:00:00 11.5 C 5.78 g/m*3 11.5 C 22.5 km/h
758 02-04-2021 15:05:00 11.6 C 5.82 g/m*3 11.6 C 11.3 km/h
759 02-04-2021 15:10:00 11.7 C 5.75 g/m*3 11.7 C 16.1 km/h
760 02-04-2021 15:15:00 11.7 C 5.86 g/m*3 11.7 C 14.5 km/h
761 02-04-2021 15:20:00 11.8 C 5.79 g/m*3 11.8 C 17.7 km/h
762 02-04-2021 15:25:00 11.7 C 5.86 g/m*3 11.7 C 17.7 km/h
763 02-04-2021 15:30:00 11.4 C 5.75 g/m*3 11.4 C 12.9 km/h
764 02-04-2021 15:35:00 11.6 C 5.92 g/m*3 11.6 C 14.5 km/h
765 02-04-2021 15:40:00 11.5 C 5.78 g/m*3 11.5 C 19.3 km/h
766 02-04-2021 15:45:00 11.6 C 5.82 g/m*3 11.6 C 12.9 km/h
767 02-04-2021 15:50:00 11.7 C 5.75 g/m*3 11.7 C 16.1 km/h
768 02-04-2021 15:55:00 11.8 C 5.58 g/m*3 11.8 C 17.7 km/h
769 02-04-2021 16:00:00 11.7 C 5.65 g/m*3 11.7 C 17.7 km/h
770 02-04-2021 16:05:00 11.7 C 5.65 g/m*3 11.7 C 17.7 km/h
771 02-04-2021 16:10:00 11.7 C 5.54 g/m*3 11.7 C 19.3 km/h
772 02-04-2021 16:15:00 11.8 C 5.58 g/m*3 11.8 C 17.7 km/h
773 02-04-2021 16:20:00 11.6 C 5.72 g/m*3 11.6 C 16.1 km/h
774 02-04-2021 16:25:00 11.6 C 6.13 g/m*3 11.6 C 20.9 km/h
775 02-04-2021 16:30:00 11.5 C 6.09 g/m*3 11.5 C 22.5 km/h
Sensor: Nr:Datum:Temp:Abs-Feuchte:Windchill:Wind:
Aussen-T/F 776 02-04-2021 16:35:00 11.6 C 6.24 g/m*3 11.6 C 14.5 km/h
777 02-04-2021 16:40:00 11.6 C 6.13 g/m*3 11.6 C 20.9 km/h
778 02-04-2021 16:45:00 11.3 C 5.92 g/m*3 11.3 C 20.9 km/h
779 02-04-2021 16:50:00 11.4 C 6.06 g/m*3 11.4 C 20.9 km/h
780 02-04-2021 16:55:00 11.5 C 5.89 g/m*3 11.5 C 25.7 km/h
781 02-04-2021 17:00:00 11.3 C 5.81 g/m*3 11.3 C 24.1 km/h
782 02-04-2021 17:05:00 11.2 C 5.78 g/m*3 11.2 C 22.5 km/h
783 02-04-2021 17:10:00 11.2 C 5.78 g/m*3 11.2 C 12.9 km/h
784 02-04-2021 17:15:00 11.2 C 5.78 g/m*3 11.2 C 20.9 km/h
785 02-04-2021 17:20:00 11.1 C 6.14 g/m*3 11.1 C 20.9 km/h
786 02-04-2021 17:25:00 11.1 C 6.25 g/m*3 11.1 C 16.1 km/h
787 02-04-2021 17:30:00 10.9 C 6.07 g/m*3 8.58 C 19.3 km/h
788 02-04-2021 17:35:00 10.8 C 6.13 g/m*3 8.3 C 20.9 km/h
789 02-04-2021 17:40:00 10.7 C 5.99 g/m*3 8.48 C 17.7 km/h
790 02-04-2021 17:45:00 10.4 C 5.88 g/m*3 7.53 C 24.1 km/h
791 02-04-2021 17:50:00 10.3 C 6.03 g/m*3 7.82 C 19.3 km/h
792 02-04-2021 17:55:00 10.3 C 6.03 g/m*3 7.98 C 17.7 km/h
793 02-04-2021 18:00:00 10.3 C 6.03 g/m*3 7.82 C 19.3 km/h
794 02-04-2021 18:05:00 10.2 C 6 g/m*3 8.43 C 12.9 km/h
795 02-04-2021 18:10:00 10.2 C 6 g/m*3 8.22 C 14.5 km/h
796 02-04-2021 18:15:00 10.1 C 5.86 g/m*3 7.57 C 19.3 km/h
797 02-04-2021 18:20:00 9.8 C 5.75 g/m*3 7.19 C 19.3 km/h
798 02-04-2021 18:25:00 9.7 C 5.81 g/m*3 8.06 C 11.3 km/h
799 02-04-2021 18:30:00 9.7 C 5.81 g/m*3 7.82 C 12.9 km/h
800 02-04-2021 18:35:00 9.8 C 5.75 g/m*3 7.73 C 14.5 km/h
Sensor: Nr:Datum:Temp:Abs-Feuchte:Windchill:Wind:
Aussen-T/F 801 02-04-2021 18:40:00 9.7 C 5.72 g/m*3 7.41 C 16.1 km/h
802 02-04-2021 18:45:00 9.4 C 5.7 g/m*3 7.24 C 14.5 km/h
803 02-04-2021 18:50:00 9.3 C 5.66 g/m*3 7.85 C 9.7 km/h
804 02-04-2021 18:55:00 9.1 C 5.59 g/m*3 6.67 C 16.1 km/h
805 02-04-2021 19:00:00 8.9 C 5.61 g/m*3 6.85 C 12.9 km/h
806 02-04-2021 19:05:00 8.8 C 5.66 g/m*3 7.25 C 9.7 km/h
807 02-04-2021 19:10:00 8.7 C 5.62 g/m*3 6.85 C 11.3 km/h
808 02-04-2021 19:15:00 8.5 C 5.55 g/m*3 6.36 C 12.9 km/h
809 02-04-2021 19:20:00 8.3 C 5.48 g/m*3 5.68 C 16.1 km/h
810 02-04-2021 19:25:00 8.2 C 5.36 g/m*3 5.18 C 19.3 km/h
811 02-04-2021 19:30:00 8.2 C 5.44 g/m*3 5.76 C 14.5 km/h
812 02-04-2021 19:35:00 8.1 C 5.49 g/m*3 5.87 C 12.9 km/h
813 02-04-2021 19:40:00 8.1 C 5.41 g/m*3 5.43 C 16.1 km/h
814 02-04-2021 19:45:00 8 C 5.46 g/m*3 5.52 C 14.5 km/h
815 02-04-2021 19:50:00 7.9 C 5.42 g/m*3 6.52 C 8.1 km/h
816 02-04-2021 19:55:00 7.9 C 5.42 g/m*3 5.39 C 14.5 km/h
817 02-04-2021 20:00:00 7.8 C 5.39 g/m*3 6.4 C 8.1 km/h
818 02-04-2021 20:05:00 7.8 C 5.47 g/m*3 6.83 C 6.4 km/h
819 02-04-2021 20:10:00 7.7 C 5.43 g/m*3 5.94 C 9.7 km/h
820 02-04-2021 20:15:00 7.6 C 5.32 g/m*3 5.53 C 11.3 km/h
821 02-04-2021 20:20:00 7.4 C 5.33 g/m*3 5.58 C 9.7 km/h
822 02-04-2021 20:25:00 7.4 C 5.33 g/m*3 4.78 C 14.5 km/h
823 02-04-2021 20:30:00 7.3 C 5.29 g/m*3 5.81 C 8.1 km/h
824 02-04-2021 20:35:00 7.2 C 5.34 g/m*3 5.69 C 8.1 km/h
825 02-04-2021 20:40:00 7.2 C 5.34 g/m*3 5.35 C 9.7 km/h
Sensor: Nr:Datum:Temp:Abs-Feuchte:Windchill:Wind:
Aussen-T/F 826 02-04-2021 20:45:00 7.2 C 5.34 g/m*3 5.69 C 8.1 km/h
827 02-04-2021 20:50:00 7.2 C 5.34 g/m*3 7.2 C 4.8 km/h
828 02-04-2021 20:55:00 7.1 C 5.3 g/m*3 6.02 C 6.4 km/h
829 02-04-2021 21:00:00 7.2 C 5.42 g/m*3 5.69 C 8.1 km/h
830 02-04-2021 21:05:00 7.2 C 5.42 g/m*3 7.2 C 4.8 km/h
831 02-04-2021 21:10:00 7.2 C 5.42 g/m*3 5.69 C 8.1 km/h
832 02-04-2021 21:15:00 7.3 C 5.45 g/m*3 5.16 C 11.3 km/h
833 02-04-2021 21:20:00 7.3 C 5.37 g/m*3 5.16 C 11.3 km/h
834 02-04-2021 21:25:00 7.4 C 5.41 g/m*3 5.28 C 11.3 km/h
835 02-04-2021 21:30:00 7.4 C 5.41 g/m*3 5.93 C 8.1 km/h
836 02-04-2021 21:35:00 7.4 C 5.41 g/m*3 5.58 C 9.7 km/h
837 02-04-2021 21:40:00 7.4 C 5.41 g/m*3 5.58 C 9.7 km/h
838 02-04-2021 21:45:00 7.4 C 5.41 g/m*3 4.78 C 14.5 km/h
839 02-04-2021 21:50:00 7.4 C 5.41 g/m*3 5.28 C 11.3 km/h
840 02-04-2021 21:55:00 7.4 C 5.41 g/m*3 5.28 C 11.3 km/h
841 02-04-2021 22:00:00 7.4 C 5.41 g/m*3 5.02 C 12.9 km/h
842 02-04-2021 22:05:00 7.4 C 5.33 g/m*3 4.56 C 16.1 km/h
843 02-04-2021 22:10:00 7.4 C 5.33 g/m*3 5.02 C 12.9 km/h
844 02-04-2021 22:15:00 7.4 C 5.33 g/m*3 5.02 C 12.9 km/h
845 02-04-2021 22:20:00 7.4 C 5.33 g/m*3 5.58 C 9.7 km/h
846 02-04-2021 22:25:00 7.4 C 5.33 g/m*3 5.58 C 9.7 km/h
847 02-04-2021 22:30:00 7.3 C 5.29 g/m*3 5.47 C 9.7 km/h
848 02-04-2021 22:35:00 7.3 C 5.21 g/m*3 4.9 C 12.9 km/h
849 02-04-2021 22:40:00 7.3 C 5.21 g/m*3 4.9 C 12.9 km/h
850 02-04-2021 22:45:00 7.3 C 5.21 g/m*3 5.47 C 9.7 km/h
Sensor: Nr:Datum:Temp:Abs-Feuchte:Windchill:Wind:
Aussen-T/F 851 02-04-2021 22:50:00 7.3 C 5.21 g/m*3 5.16 C 11.3 km/h
852 02-04-2021 22:55:00 7.3 C 5.21 g/m*3 5.16 C 11.3 km/h
853 02-04-2021 23:00:00 7.3 C 5.21 g/m*3 4.44 C 16.1 km/h
854 02-04-2021 23:05:00 7.3 C 5.21 g/m*3 4.44 C 16.1 km/h
855 02-04-2021 23:10:00 7.2 C 5.18 g/m*3 4.53 C 14.5 km/h
856 02-04-2021 23:15:00 7.2 C 5.18 g/m*3 4.77 C 12.9 km/h
857 02-04-2021 23:20:00 7.2 C 5.26 g/m*3 5.04 C 11.3 km/h
858 02-04-2021 23:25:00 7.2 C 5.26 g/m*3 6.13 C 6.4 km/h
859 02-04-2021 23:30:00 7.1 C 5.3 g/m*3 5.58 C 8.1 km/h
860 02-04-2021 23:35:00 7.1 C 5.3 g/m*3 5.23 C 9.7 km/h
861 02-04-2021 23:40:00 7.1 C 5.3 g/m*3 5.23 C 9.7 km/h
862 02-04-2021 23:45:00 7.1 C 5.3 g/m*3 4.41 C 14.5 km/h
863 02-04-2021 23:50:00 7.1 C 5.3 g/m*3 4.92 C 11.3 km/h
864 02-04-2021 23:55:00 7 C 5.27 g/m*3 4.8 C 11.3 km/h
865 03-04-2021 00:00:00 7 C 5.27 g/m*3 4.06 C 16.1 km/h
866 03-04-2021 00:05:00 6.9 C 5.23 g/m*3 5.34 C 8.1 km/h
867 03-04-2021 00:10:00 6.9 C 5.23 g/m*3 5.79 C 6.4 km/h
868 03-04-2021 00:15:00 6.9 C 5.31 g/m*3 6.9 C 4.8 km/h
869 03-04-2021 00:20:00 6.9 C 5.31 g/m*3 6.9 C 4.8 km/h
870 03-04-2021 00:25:00 6.9 C 5.31 g/m*3 6.9 C 4.8 km/h
871 03-04-2021 00:30:00 6.9 C 5.31 g/m*3 4.99 C 9.7 km/h
872 03-04-2021 00:35:00 6.9 C 5.31 g/m*3 4.99 C 9.7 km/h
873 03-04-2021 00:40:00 6.9 C 5.31 g/m*3 5.34 C 8.1 km/h
874 03-04-2021 00:45:00 6.8 C 5.2 g/m*3 5.67 C 6.4 km/h
875 03-04-2021 00:50:00 6.8 C 5.28 g/m*3 6.8 C 4.8 km/h
Sensor: Nr:Datum:Temp:Abs-Feuchte:Windchill:Wind:
Aussen-T/F 876 03-04-2021 00:55:00 6.8 C 5.2 g/m*3 6.8 C 1.6 km/h
877 03-04-2021 01:00:00 6.8 C 5.28 g/m*3 5.67 C 6.4 km/h
878 03-04-2021 01:05:00 6.8 C 5.2 g/m*3 6.8 C 4.8 km/h
879 03-04-2021 01:10:00 6.8 C 5.2 g/m*3 5.67 C 6.4 km/h
880 03-04-2021 01:15:00 6.8 C 5.2 g/m*3 6.8 C 4.8 km/h
881 03-04-2021 01:20:00 6.8 C 5.28 g/m*3 5.67 C 6.4 km/h
882 03-04-2021 01:25:00 6.8 C 5.28 g/m*3 4.56 C 11.3 km/h
883 03-04-2021 01:30:00 6.8 C 5.35 g/m*3 6.8 C 4.8 km/h
884 03-04-2021 01:35:00 6.8 C 5.35 g/m*3 4.87 C 9.7 km/h
885 03-04-2021 01:40:00 6.8 C 5.43 g/m*3 6.8 C 1.6 km/h
886 03-04-2021 01:45:00 6.7 C 5.39 g/m*3 6.7 C 3.2 km/h
887 03-04-2021 01:50:00 6.7 C 5.39 g/m*3 6.7 C 1.6 km/h
888 03-04-2021 01:55:00 6.7 C 5.39 g/m*3 6.7 C 4.8 km/h
889 03-04-2021 02:00:00 6.7 C 5.39 g/m*3 5.11 C 8.1 km/h
890 03-04-2021 02:05:00 6.7 C 5.39 g/m*3 6.7 C 4.8 km/h
891 03-04-2021 02:10:00 6.7 C 5.39 g/m*3 4.75 C 9.7 km/h
892 03-04-2021 02:15:00 6.7 C 5.32 g/m*3 4.44 C 11.3 km/h
893 03-04-2021 02:20:00 6.7 C 5.32 g/m*3 6.7 C 4.8 km/h
894 03-04-2021 02:25:00 6.7 C 5.32 g/m*3 5.56 C 6.4 km/h
895 03-04-2021 02:30:00 6.7 C 5.39 g/m*3 4.75 C 9.7 km/h
896 03-04-2021 02:35:00 6.7 C 5.47 g/m*3 5.11 C 8.1 km/h
897 03-04-2021 02:40:00 6.7 C 5.47 g/m*3 4.44 C 11.3 km/h
898 03-04-2021 02:45:00 6.7 C 5.55 g/m*3 4.17 C 12.9 km/h
899 03-04-2021 02:50:00 6.7 C 5.55 g/m*3 4.44 C 11.3 km/h
900 03-04-2021 02:55:00 6.7 C 5.55 g/m*3 4.44 C 11.3 km/h
Sensor: Nr:Datum:Temp:Abs-Feuchte:Windchill:Wind:
Aussen-T/F 901 03-04-2021 03:00:00 6.7 C 5.55 g/m*3 5.56 C 6.4 km/h
902 03-04-2021 03:05:00 6.7 C 5.55 g/m*3 5.11 C 8.1 km/h
903 03-04-2021 03:10:00 6.7 C 5.55 g/m*3 5.56 C 6.4 km/h
904 03-04-2021 03:15:00 6.7 C 5.55 g/m*3 5.11 C 8.1 km/h
905 03-04-2021 03:20:00 6.7 C 5.55 g/m*3 5.11 C 8.1 km/h
906 03-04-2021 03:25:00 6.6 C 5.59 g/m*3 5.44 C 6.4 km/h
907 03-04-2021 03:30:00 6.6 C 5.59 g/m*3 5.44 C 6.4 km/h
908 03-04-2021 03:35:00 6.6 C 5.59 g/m*3 4.63 C 9.7 km/h
909 03-04-2021 03:40:00 6.6 C 5.59 g/m*3 6.6 C 4.8 km/h
910 03-04-2021 03:45:00 6.6 C 5.59 g/m*3 6.6 C 4.8 km/h
911 03-04-2021 03:50:00 6.6 C 5.66 g/m*3 4.99 C 8.1 km/h
912 03-04-2021 03:55:00 6.6 C 5.66 g/m*3 6.6 C 4.8 km/h
913 03-04-2021 04:00:00 6.5 C 5.7 g/m*3 5.33 C 6.4 km/h
914 03-04-2021 04:05:00 6.5 C 5.7 g/m*3 5.33 C 6.4 km/h
915 03-04-2021 04:10:00 6.5 C 5.77 g/m*3 6.5 C 3.2 km/h
916 03-04-2021 04:15:00 6.5 C 5.85 g/m*3 4.51 C 9.7 km/h
917 03-04-2021 04:20:00 6.5 C 5.85 g/m*3 5.33 C 6.4 km/h
918 03-04-2021 04:25:00 6.5 C 5.85 g/m*3 6.5 C 4.8 km/h
919 03-04-2021 04:30:00 6.4 C 5.89 g/m*3 4.75 C 8.1 km/h
920 03-04-2021 04:35:00 6.4 C 5.89 g/m*3 5.21 C 6.4 km/h
921 03-04-2021 04:40:00 6.4 C 5.89 g/m*3 4.08 C 11.3 km/h
922 03-04-2021 04:45:00 6.4 C 5.89 g/m*3 4.08 C 11.3 km/h
923 03-04-2021 04:50:00 6.4 C 5.81 g/m*3 6.4 C 4.8 km/h
924 03-04-2021 04:55:00 6.4 C 5.74 g/m*3 5.21 C 6.4 km/h
925 03-04-2021 05:00:00 6.4 C 5.66 g/m*3 4.39 C 9.7 km/h
Sensor: Nr:Datum:Temp:Abs-Feuchte:Windchill:Wind:
Aussen-T/F 926 03-04-2021 05:05:00 6.4 C 5.59 g/m*3 3.8 C 12.9 km/h
927 03-04-2021 05:10:00 6.4 C 5.59 g/m*3 3.8 C 12.9 km/h
928 03-04-2021 05:15:00 6.4 C 5.59 g/m*3 4.75 C 8.1 km/h
929 03-04-2021 05:20:00 6.3 C 5.55 g/m*3 3.2 C 16.1 km/h
930 03-04-2021 05:25:00 6.3 C 5.48 g/m*3 3.43 C 14.5 km/h
931 03-04-2021 05:30:00 6.3 C 5.48 g/m*3 3.43 C 14.5 km/h
932 03-04-2021 05:35:00 6.3 C 5.48 g/m*3 3.68 C 12.9 km/h
933 03-04-2021 05:40:00 6.2 C 5.37 g/m*3 2.86 C 17.7 km/h
934 03-04-2021 05:45:00 6.2 C 5.29 g/m*3 2.86 C 17.7 km/h
935 03-04-2021 05:50:00 6.2 C 5.37 g/m*3 4.15 C 9.7 km/h
936 03-04-2021 05:55:00 6.1 C 5.33 g/m*3 3.72 C 11.3 km/h
937 03-04-2021 06:00:00 6.1 C 5.33 g/m*3 3.72 C 11.3 km/h
938 03-04-2021 06:05:00 6.1 C 5.33 g/m*3 3.72 C 11.3 km/h
939 03-04-2021 06:10:00 6 C 5.37 g/m*3 3.92 C 9.7 km/h
940 03-04-2021 06:15:00 6 C 5.37 g/m*3 3.31 C 12.9 km/h
941 03-04-2021 06:20:00 5.9 C 5.34 g/m*3 3.8 C 9.7 km/h
942 03-04-2021 06:25:00 5.9 C 5.41 g/m*3 4.17 C 8.1 km/h
943 03-04-2021 06:30:00 5.9 C 5.41 g/m*3 5.9 C 4.8 km/h
944 03-04-2021 06:35:00 5.9 C 5.41 g/m*3 4.63 C 6.4 km/h
945 03-04-2021 06:40:00 5.9 C 5.48 g/m*3 4.63 C 6.4 km/h
946 03-04-2021 06:45:00 5.9 C 5.41 g/m*3 5.9 C 4.8 km/h
947 03-04-2021 06:50:00 5.8 C 5.44 g/m*3 5.8 C 3.2 km/h
948 03-04-2021 06:55:00 5.8 C 5.44 g/m*3 5.8 C 4.8 km/h
949 03-04-2021 07:00:00 5.8 C 5.44 g/m*3 5.8 C 4.8 km/h
950 03-04-2021 07:05:00 5.8 C 5.44 g/m*3 5.8 C 3.2 km/h
Sensor: Nr:Datum:Temp:Abs-Feuchte:Windchill:Wind:
Aussen-T/F 951 03-04-2021 07:10:00 5.8 C 5.52 g/m*3 5.8 C 3.2 km/h
952 03-04-2021 07:15:00 5.8 C 5.52 g/m*3 5.8 C 4.8 km/h
953 03-04-2021 07:20:00 5.8 C 5.52 g/m*3 5.8 C 4.8 km/h
954 03-04-2021 07:25:00 5.8 C 5.52 g/m*3 5.8 C 4.8 km/h
955 03-04-2021 07:30:00 5.8 C 5.52 g/m*3 4.52 C 6.4 km/h
956 03-04-2021 07:35:00 5.8 C 5.66 g/m*3 3.68 C 9.7 km/h
957 03-04-2021 07:40:00 5.7 C 5.76 g/m*3 2.95 C 12.9 km/h
958 03-04-2021 07:45:00 5.3 C 5.68 g/m*3 3.08 C 9.7 km/h
959 03-04-2021 07:50:00 5.1 C 5.68 g/m*3 5.1 C 4.8 km/h
960 03-04-2021 07:55:00 5 C 5.71 g/m*3 3.11 C 8.1 km/h
961 03-04-2021 08:00:00 5 C 5.84 g/m*3 5 C 0 km/h
962 03-04-2021 08:05:00 4.9 C 5.81 g/m*3 4.9 C 3.2 km/h
963 03-04-2021 08:10:00 4.9 C 5.81 g/m*3 4.9 C 3.2 km/h
964 03-04-2021 08:15:00 4.9 C 5.74 g/m*3 2.99 C 8.1 km/h
965 03-04-2021 08:20:00 5 C 5.71 g/m*3 2.72 C 9.7 km/h
966 03-04-2021 08:25:00 5 C 5.57 g/m*3 2.72 C 9.7 km/h
967 03-04-2021 08:30:00 5.1 C 5.61 g/m*3 3.71 C 6.4 km/h
968 03-04-2021 08:35:00 5.1 C 5.54 g/m*3 2.84 C 9.7 km/h
969 03-04-2021 08:40:00 5.2 C 5.58 g/m*3 2.96 C 9.7 km/h
970 03-04-2021 08:45:00 5.2 C 5.51 g/m*3 2.63 C 11.3 km/h
971 03-04-2021 08:50:00 5.2 C 5.51 g/m*3 2.96 C 9.7 km/h
972 03-04-2021 08:55:00 5.2 C 5.44 g/m*3 2.07 C 14.5 km/h
973 03-04-2021 09:00:00 5.2 C 5.44 g/m*3 2.34 C 12.9 km/h
974 03-04-2021 09:05:00 5.2 C 5.44 g/m*3 3.34 C 8.1 km/h
975 03-04-2021 09:10:00 5.2 C 5.44 g/m*3 2.96 C 9.7 km/h
Sensor: Nr:Datum:Temp:Abs-Feuchte:Windchill:Wind:
Aussen-T/F 976 03-04-2021 09:15:00 5.3 C 5.34 g/m*3 3.46 C 8.1 km/h
977 03-04-2021 09:20:00 5.3 C 5.34 g/m*3 2.46 C 12.9 km/h
978 03-04-2021 09:25:00 5.3 C 5.34 g/m*3 2.46 C 12.9 km/h
979 03-04-2021 09:30:00 5.3 C 5.34 g/m*3 3.94 C 6.4 km/h
980 03-04-2021 09:35:00 5.4 C 5.23 g/m*3 2.32 C 14.5 km/h
981 03-04-2021 09:40:00 5.4 C 5.16 g/m*3 2.58 C 12.9 km/h
982 03-04-2021 09:45:00 5.5 C 5.13 g/m*3 3.32 C 9.7 km/h
983 03-04-2021 09:50:00 5.5 C 5.06 g/m*3 2.99 C 11.3 km/h
984 03-04-2021 09:55:00 5.5 C 5.06 g/m*3 2.7 C 12.9 km/h
985 03-04-2021 10:00:00 5.6 C 5.16 g/m*3 4.29 C 6.4 km/h
986 03-04-2021 10:05:00 5.5 C 4.92 g/m*3 2.7 C 12.9 km/h
987 03-04-2021 10:10:00 5.6 C 5.02 g/m*3 3.44 C 9.7 km/h
988 03-04-2021 10:15:00 5.7 C 4.98 g/m*3 2.95 C 12.9 km/h
989 03-04-2021 10:20:00 5.8 C 5.01 g/m*3 3.68 C 9.7 km/h
990 03-04-2021 10:25:00 5.8 C 5.01 g/m*3 4.05 C 8.1 km/h
991 03-04-2021 10:30:00 5.9 C 4.98 g/m*3 3.8 C 9.7 km/h
992 03-04-2021 10:35:00 6.1 C 5.04 g/m*3 4.86 C 6.4 km/h
993 03-04-2021 10:40:00 6.2 C 5 g/m*3 4.98 C 6.4 km/h
994 03-04-2021 10:45:00 6.5 C 5.02 g/m*3 3.67 C 14.5 km/h
995 03-04-2021 10:50:00 6.7 C 5.01 g/m*3 4.75 C 9.7 km/h
996 03-04-2021 10:55:00 6.8 C 5.05 g/m*3 4.56 C 11.3 km/h
997 03-04-2021 11:00:00 7 C 5.04 g/m*3 5.46 C 8.1 km/h
998 03-04-2021 11:05:00 7.2 C 5.1 g/m*3 4.31 C 16.1 km/h
999 03-04-2021 11:10:00 7.3 C 5.14 g/m*3 5.47 C 9.7 km/h
1000 03-04-2021 11:15:00 7.4 C 5.09 g/m*3 4.78 C 14.5 km/h
Sensor: Nr:Datum:Temp:Abs-Feuchte:Windchill:Wind:
Aussen-T/F 1001 03-04-2021 11:20:00 7.6 C 4.99 g/m*3 5.53 C 11.3 km/h
1002 03-04-2021 11:25:00 7.7 C 5.19 g/m*3 5.94 C 9.7 km/h
1003 03-04-2021 11:30:00 7.8 C 5.14 g/m*3 6.4 C 8.1 km/h
1004 03-04-2021 11:35:00 8 C 5.21 g/m*3 6.3 C 9.7 km/h
1005 03-04-2021 11:40:00 8.1 C 5.24 g/m*3 6.42 C 9.7 km/h
1006 03-04-2021 11:45:00 8.2 C 5.28 g/m*3 7.29 C 6.4 km/h
1007 03-04-2021 11:50:00 8.4 C 5.26 g/m*3 6.78 C 9.7 km/h
1008 03-04-2021 11:55:00 8.5 C 5.21 g/m*3 6.9 C 9.7 km/h
1009 03-04-2021 12:00:00 8.6 C 5.33 g/m*3 6.48 C 12.9 km/h
1010 03-04-2021 12:05:00 8.7 C 5.36 g/m*3 6.38 C 14.5 km/h
1011 03-04-2021 12:10:00 8.8 C 5.31 g/m*3 8.8 C 3.2 km/h
1012 03-04-2021 12:15:00 8.8 C 5.31 g/m*3 8.8 C 4.8 km/h
1013 03-04-2021 12:20:00 8.8 C 5.4 g/m*3 7.98 C 6.4 km/h
1014 03-04-2021 12:25:00 8.9 C 5.34 g/m*3 8.9 C 4.8 km/h
1015 03-04-2021 12:30:00 9.1 C 5.41 g/m*3 7.93 C 8.1 km/h
1016 03-04-2021 12:35:00 9.3 C 5.39 g/m*3 9.3 C 4.8 km/h
1017 03-04-2021 12:40:00 9.4 C 5.43 g/m*3 7.46 C 12.9 km/h
1018 03-04-2021 12:45:00 9.6 C 5.5 g/m*3 7.48 C 14.5 km/h
1019 03-04-2021 12:50:00 9.8 C 5.38 g/m*3 8.45 C 9.7 km/h
1020 03-04-2021 12:55:00 9.9 C 5.42 g/m*3 9.9 C 3.2 km/h
1021 03-04-2021 13:00:00 10.1 C 5.58 g/m*3 10.1 C 3.2 km/h
1022 03-04-2021 13:05:00 10.4 C 5.69 g/m*3 9.83 C 6.4 km/h
1023 03-04-2021 13:10:00 10.7 C 5.4 g/m*3 9.52 C 9.7 km/h
1024 03-04-2021 13:15:00 10.5 C 5.43 g/m*3 9.02 C 11.3 km/h
1025 03-04-2021 13:20:00 10.3 C 5.36 g/m*3 9.04 C 9.7 km/h
Sensor: Nr:Datum:Temp:Abs-Feuchte:Windchill:Wind:
Aussen-T/F 1026 03-04-2021 13:25:00 10.2 C 5.33 g/m*3 10.2 C 4.8 km/h
1027 03-04-2021 13:30:00 10.3 C 5.27 g/m*3 10.3 C 3.2 km/h
1028 03-04-2021 13:35:00 10.5 C 5.24 g/m*3 9.02 C 11.3 km/h
1029 03-04-2021 13:40:00 10.7 C 5.4 g/m*3 10.7 C 1.6 km/h
1030 03-04-2021 13:45:00 11 C 5.41 g/m*3 9.4 C 12.9 km/h
1031 03-04-2021 13:50:00 11.1 C 5.24 g/m*3 11.1 C 12.9 km/h
1032 03-04-2021 13:55:00 11 C 5.2 g/m*3 10.16 C 8.1 km/h
1033 03-04-2021 14:00:00 10.9 C 5.17 g/m*3 10.04 C 8.1 km/h
1034 03-04-2021 14:05:00 10.9 C 5.07 g/m*3 9.51 C 11.3 km/h
1035 03-04-2021 14:10:00 11.1 C 5.34 g/m*3 11.1 C 6.4 km/h
1036 03-04-2021 14:15:00 11.5 C 5.16 g/m*3 11.5 C 6.4 km/h
1037 03-04-2021 14:20:00 11.9 C 5.19 g/m*3 11.9 C 16.1 km/h
1038 03-04-2021 14:25:00 12.1 C 5.04 g/m*3 12.1 C 12.9 km/h
1039 03-04-2021 14:30:00 11.9 C 4.98 g/m*3 11.9 C 14.5 km/h
1040 03-04-2021 14:35:00 11.7 C 4.92 g/m*3 11.7 C 12.9 km/h
1041 03-04-2021 14:40:00 11.8 C 4.84 g/m*3 11.8 C 12.9 km/h
1042 03-04-2021 14:45:00 12 C 5.01 g/m*3 12 C 9.7 km/h
1043 03-04-2021 14:50:00 12.2 C 4.96 g/m*3 12.2 C 16.1 km/h
1044 03-04-2021 14:55:00 12.2 C 4.86 g/m*3 12.2 C 9.7 km/h
1045 03-04-2021 15:00:00 12.2 C 4.86 g/m*3 12.2 C 8.1 km/h
1046 03-04-2021 15:05:00 12 C 4.8 g/m*3 12 C 4.8 km/h
1047 03-04-2021 15:10:00 12.1 C 5.04 g/m*3 12.1 C 12.9 km/h
1048 03-04-2021 15:15:00 12.5 C 5.06 g/m*3 12.5 C 14.5 km/h
1049 03-04-2021 15:20:00 12.6 C 4.98 g/m*3 12.6 C 17.7 km/h
1050 03-04-2021 15:25:00 12.3 C 4.67 g/m*3 12.3 C 17.7 km/h
Sensor: Nr:Datum:Temp:Abs-Feuchte:Windchill:Wind:
Aussen-T/F 1051 03-04-2021 15:30:00 12.2 C 4.64 g/m*3 12.2 C 12.9 km/h
1052 03-04-2021 15:35:00 12.4 C 4.92 g/m*3 12.4 C 6.4 km/h
1053 03-04-2021 15:40:00 12.8 C 4.7 g/m*3 12.8 C 3.2 km/h
1054 03-04-2021 15:45:00 12.9 C 4.96 g/m*3 12.9 C 16.1 km/h
1055 03-04-2021 15:50:00 12.7 C 4.79 g/m*3 12.7 C 16.1 km/h
1056 03-04-2021 15:55:00 12.5 C 4.84 g/m*3 12.5 C 12.9 km/h
1057 03-04-2021 16:00:00 12.6 C 4.65 g/m*3 12.6 C 12.9 km/h
1058 03-04-2021 16:05:00 12.8 C 4.59 g/m*3 12.8 C 14.5 km/h
1059 03-04-2021 16:10:00 13.1 C 4.68 g/m*3 13.1 C 12.9 km/h
1060 03-04-2021 16:15:00 13 C 4.65 g/m*3 13 C 14.5 km/h
1061 03-04-2021 16:20:00 12.7 C 4.56 g/m*3 12.7 C 16.1 km/h
1062 03-04-2021 16:25:00 12.6 C 4.65 g/m*3 12.6 C 9.7 km/h
1063 03-04-2021 16:30:00 12.8 C 4.82 g/m*3 12.8 C 12.9 km/h
1064 03-04-2021 16:35:00 12.8 C 4.7 g/m*3 12.8 C 17.7 km/h
1065 03-04-2021 16:40:00 12.7 C 4.56 g/m*3 12.7 C 12.9 km/h
1066 03-04-2021 16:45:00 12.8 C 4.59 g/m*3 12.8 C 16.1 km/h
1067 03-04-2021 16:50:00 12.8 C 4.59 g/m*3 12.8 C 14.5 km/h
1068 03-04-2021 16:55:00 12.9 C 4.62 g/m*3 12.9 C 19.3 km/h
1069 03-04-2021 17:00:00 12.8 C 4.7 g/m*3 12.8 C 12.9 km/h
1070 03-04-2021 17:05:00 12.9 C 4.62 g/m*3 12.9 C 14.5 km/h
1071 03-04-2021 17:10:00 13 C 4.65 g/m*3 13 C 12.9 km/h
1072 03-04-2021 17:15:00 13.1 C 4.56 g/m*3 13.1 C 12.9 km/h
1073 03-04-2021 17:20:00 13.3 C 4.74 g/m*3 13.3 C 12.9 km/h
1074 03-04-2021 17:25:00 13.4 C 4.53 g/m*3 13.4 C 19.3 km/h
1075 03-04-2021 17:30:00 13.2 C 4.48 g/m*3 13.2 C 16.1 km/h
Sensor: Nr:Datum:Temp:Abs-Feuchte:Windchill:Wind:
Aussen-T/F 1076 03-04-2021 17:35:00 13.2 C 4.59 g/m*3 13.2 C 14.5 km/h
1077 03-04-2021 17:40:00 13.1 C 4.45 g/m*3 13.1 C 12.9 km/h
1078 03-04-2021 17:45:00 13.2 C 4.48 g/m*3 13.2 C 12.9 km/h
1079 03-04-2021 17:50:00 13.2 C 4.48 g/m*3 13.2 C 17.7 km/h
1080 03-04-2021 17:55:00 13.2 C 4.71 g/m*3 13.2 C 14.5 km/h
1081 03-04-2021 18:00:00 12.9 C 4.62 g/m*3 12.9 C 12.9 km/h
1082 03-04-2021 18:05:00 12.9 C 4.62 g/m*3 12.9 C 11.3 km/h
1083 03-04-2021 18:10:00 12.9 C 4.51 g/m*3 12.9 C 11.3 km/h
1084 03-04-2021 18:15:00 13 C 4.76 g/m*3 13 C 11.3 km/h
1085 03-04-2021 18:20:00 13.2 C 4.82 g/m*3 13.2 C 12.9 km/h
1086 03-04-2021 18:25:00 13.4 C 4.77 g/m*3 13.4 C 12.9 km/h
1087 03-04-2021 18:30:00 13.3 C 4.62 g/m*3 13.3 C 12.9 km/h
1088 03-04-2021 18:35:00 13.1 C 4.79 g/m*3 13.1 C 19.3 km/h
1089 03-04-2021 18:40:00 13.1 C 4.91 g/m*3 13.1 C 12.9 km/h
1090 03-04-2021 18:45:00 12.9 C 4.85 g/m*3 12.9 C 14.5 km/h
1091 03-04-2021 18:50:00 12.7 C 4.9 g/m*3 12.7 C 12.9 km/h
1092 03-04-2021 18:55:00 12.5 C 4.84 g/m*3 12.5 C 12.9 km/h
1093 03-04-2021 19:00:00 12.3 C 4.78 g/m*3 12.3 C 11.3 km/h
1094 03-04-2021 19:05:00 12.1 C 4.72 g/m*3 12.1 C 11.3 km/h
1095 03-04-2021 19:10:00 11.9 C 4.77 g/m*3 11.9 C 14.5 km/h
1096 03-04-2021 19:15:00 11.8 C 4.84 g/m*3 11.8 C 12.9 km/h
1097 03-04-2021 19:20:00 11.7 C 4.81 g/m*3 11.7 C 14.5 km/h
1098 03-04-2021 19:25:00 11.7 C 4.81 g/m*3 11.7 C 9.7 km/h
1099 03-04-2021 19:30:00 11.6 C 4.78 g/m*3 11.6 C 14.5 km/h
1100 03-04-2021 19:35:00 11.4 C 4.82 g/m*3 11.4 C 12.9 km/h
Sensor: Nr:Datum:Temp:Abs-Feuchte:Windchill:Wind:
Aussen-T/F 1101 03-04-2021 19:40:00 11.3 C 4.69 g/m*3 11.3 C 14.5 km/h
1102 03-04-2021 19:45:00 11.1 C 4.63 g/m*3 11.1 C 11.3 km/h
1103 03-04-2021 19:50:00 11 C 4.7 g/m*3 9.88 C 9.7 km/h
1104 03-04-2021 19:55:00 10.9 C 4.77 g/m*3 9.51 C 11.3 km/h
1105 03-04-2021 20:00:00 10.7 C 4.71 g/m*3 10.7 C 3.2 km/h
1106 03-04-2021 20:05:00 10.6 C 4.68 g/m*3 9.69 C 8.1 km/h
1107 03-04-2021 20:10:00 10.4 C 4.72 g/m*3 10.4 C 4.8 km/h
1108 03-04-2021 20:15:00 10.2 C 4.85 g/m*3 10.2 C 3.2 km/h
1109 03-04-2021 20:20:00 9.9 C 4.86 g/m*3 9.9 C 0 km/h
1110 03-04-2021 20:25:00 9.6 C 4.86 g/m*3 9.6 C 1.6 km/h
1111 03-04-2021 20:30:00 9.1 C 4.79 g/m*3 9.1 C 1.6 km/h
1112 03-04-2021 20:35:00 8.7 C 4.93 g/m*3 8.7 C 4.8 km/h
1113 03-04-2021 20:40:00 8.3 C 4.97 g/m*3 8.3 C 3.2 km/h
1114 03-04-2021 20:45:00 7.9 C 5.01 g/m*3 7.9 C 4.8 km/h
1115 03-04-2021 20:50:00 7.7 C 5.03 g/m*3 7.7 C 3.2 km/h
1116 03-04-2021 20:55:00 7.3 C 4.9 g/m*3 7.3 C 3.2 km/h
1117 03-04-2021 21:00:00 7.1 C 4.91 g/m*3 7.1 C 1.6 km/h
1118 03-04-2021 21:05:00 6.9 C 4.93 g/m*3 6.9 C 1.6 km/h
1119 03-04-2021 21:10:00 6.8 C 4.89 g/m*3 6.8 C 1.6 km/h
1120 03-04-2021 21:15:00 6.7 C 4.94 g/m*3 6.7 C 0 km/h
1121 03-04-2021 21:20:00 6.6 C 4.91 g/m*3 6.6 C 3.2 km/h
1122 03-04-2021 21:25:00 6.4 C 4.84 g/m*3 6.4 C 3.2 km/h
1123 03-04-2021 21:30:00 6.3 C 4.96 g/m*3 6.3 C 4.8 km/h
1124 03-04-2021 21:35:00 6.2 C 4.93 g/m*3 6.2 C 4.8 km/h
1125 03-04-2021 21:40:00 6.1 C 4.89 g/m*3 6.1 C 4.8 km/h
Sensor: Nr:Datum:Temp:Abs-Feuchte:Windchill:Wind:
Aussen-T/F 1126 03-04-2021 21:45:00 5.9 C 4.9 g/m*3 5.9 C 4.8 km/h
1127 03-04-2021 21:50:00 5.9 C 4.9 g/m*3 5.9 C 4.8 km/h
1128 03-04-2021 21:55:00 5.8 C 4.94 g/m*3 5.8 C 4.8 km/h
1129 03-04-2021 22:00:00 5.7 C 4.91 g/m*3 5.7 C 4.8 km/h
1130 03-04-2021 22:05:00 5.7 C 4.98 g/m*3 5.7 C 3.2 km/h
1131 03-04-2021 22:10:00 5.6 C 4.88 g/m*3 5.6 C 3.2 km/h
1132 03-04-2021 22:15:00 5.5 C 4.92 g/m*3 5.5 C 4.8 km/h
1133 03-04-2021 22:20:00 5.4 C 4.95 g/m*3 5.4 C 4.8 km/h
1134 03-04-2021 22:25:00 5.3 C 4.92 g/m*3 5.3 C 4.8 km/h
1135 03-04-2021 22:30:00 5.2 C 4.89 g/m*3 5.2 C 4.8 km/h
1136 03-04-2021 22:35:00 5.2 C 4.96 g/m*3 5.2 C 3.2 km/h
1137 03-04-2021 22:40:00 5.1 C 4.92 g/m*3 5.1 C 3.2 km/h
1138 03-04-2021 22:45:00 4.9 C 4.86 g/m*3 4.9 C 3.2 km/h
1139 03-04-2021 22:50:00 4.9 C 4.86 g/m*3 4.9 C 3.2 km/h
1140 03-04-2021 22:55:00 4.8 C 4.9 g/m*3 4.8 C 1.6 km/h
1141 03-04-2021 23:00:00 4.8 C 4.9 g/m*3 4.8 C 3.2 km/h
1142 03-04-2021 23:05:00 4.7 C 4.86 g/m*3 4.7 C 3.2 km/h
1143 03-04-2021 23:10:00 4.6 C 4.83 g/m*3 4.6 C 3.2 km/h
1144 03-04-2021 23:15:00 4.4 C 4.83 g/m*3 4.4 C 1.6 km/h
1145 03-04-2021 23:20:00 4.3 C 4.86 g/m*3 4.3 C 0 km/h
1146 03-04-2021 23:25:00 4.2 C 4.83 g/m*3 4.2 C 1.6 km/h
1147 03-04-2021 23:30:00 4.1 C 4.8 g/m*3 4.1 C 0 km/h
1148 03-04-2021 23:35:00 4 C 4.83 g/m*3 4 C 0 km/h
1149 03-04-2021 23:40:00 3.8 C 4.77 g/m*3 3.8 C 0 km/h
1150 03-04-2021 23:45:00 3.7 C 4.8 g/m*3 3.7 C 0 km/h
Sensor: Nr:Datum:Temp:Abs-Feuchte:Windchill:Wind:
Aussen-T/F 1151 03-04-2021 23:50:00 3.5 C 4.73 g/m*3 3.5 C 0 km/h
1152 03-04-2021 23:55:00 3.4 C 4.7 g/m*3 3.4 C 1.6 km/h
1153 04-04-2021 00:00:00 3.3 C 4.73 g/m*3 3.3 C 0 km/h
1154 04-04-2021 00:05:00 3.2 C 4.7 g/m*3 3.2 C 0 km/h
1155 04-04-2021 00:10:00 3.1 C 4.73 g/m*3 3.1 C 0 km/h
1156 04-04-2021 00:15:00 3.1 C 4.73 g/m*3 3.1 C 0 km/h
1157 04-04-2021 00:20:00 3.1 C 4.79 g/m*3 3.1 C 1.6 km/h
1158 04-04-2021 00:25:00 3 C 4.76 g/m*3 3 C 3.2 km/h
1159 04-04-2021 00:30:00 3 C 4.7 g/m*3 3 C 3.2 km/h
1160 04-04-2021 00:35:00 2.9 C 4.67 g/m*3 2.9 C 0 km/h
1161 04-04-2021 00:40:00 2.9 C 4.72 g/m*3 2.9 C 0 km/h
1162 04-04-2021 00:45:00 2.8 C 4.69 g/m*3 2.8 C 0 km/h
1163 04-04-2021 00:50:00 2.8 C 4.75 g/m*3 2.8 C 0 km/h
1164 04-04-2021 00:55:00 2.8 C 4.75 g/m*3 2.8 C 0 km/h
1165 04-04-2021 01:00:00 2.8 C 4.75 g/m*3 2.8 C 0 km/h
1166 04-04-2021 01:05:00 2.7 C 4.72 g/m*3 2.7 C 0 km/h
1167 04-04-2021 01:10:00 2.7 C 4.78 g/m*3 2.7 C 0 km/h
1168 04-04-2021 01:15:00 2.6 C 4.75 g/m*3 2.6 C 0 km/h
1169 04-04-2021 01:20:00 2.5 C 4.71 g/m*3 2.5 C 0 km/h
1170 04-04-2021 01:25:00 2.4 C 4.68 g/m*3 2.4 C 0 km/h
1171 04-04-2021 01:30:00 2.4 C 4.74 g/m*3 2.4 C 0 km/h
1172 04-04-2021 01:35:00 2.3 C 4.71 g/m*3 2.3 C 0 km/h
1173 04-04-2021 01:40:00 2.3 C 4.76 g/m*3 2.3 C 0 km/h
1174 04-04-2021 01:45:00 2.2 C 4.73 g/m*3 2.2 C 0 km/h
1175 04-04-2021 01:50:00 2.2 C 4.73 g/m*3 2.2 C 0 km/h
Sensor: Nr:Datum:Temp:Abs-Feuchte:Windchill:Wind:
Aussen-T/F 1176 04-04-2021 01:55:00 2.2 C 4.79 g/m*3 2.2 C 3.2 km/h
1177 04-04-2021 02:00:00 2.2 C 4.79 g/m*3 2.2 C 0 km/h
1178 04-04-2021 02:05:00 2.3 C 4.88 g/m*3 2.3 C 0 km/h
1179 04-04-2021 02:10:00 2.3 C 4.88 g/m*3 2.3 C 0 km/h
1180 04-04-2021 02:15:00 2.3 C 4.88 g/m*3 2.3 C 0 km/h
1181 04-04-2021 02:20:00 2.2 C 4.84 g/m*3 2.2 C 0 km/h
1182 04-04-2021 02:25:00 2.3 C 4.88 g/m*3 2.3 C 1.6 km/h
1183 04-04-2021 02:30:00 2.3 C 4.93 g/m*3 2.3 C 3.2 km/h
1184 04-04-2021 02:35:00 2.8 C 5.22 g/m*3 2.8 C 1.6 km/h
1185 04-04-2021 02:40:00 3.2 C 5.36 g/m*3 3.2 C 4.8 km/h
1186 04-04-2021 02:45:00 3.5 C 5.41 g/m*3 3.5 C 4.8 km/h
1187 04-04-2021 02:50:00 3.8 C 5.46 g/m*3 2.21 C 6.4 km/h
1188 04-04-2021 02:55:00 3.9 C 5.43 g/m*3 3.9 C 4.8 km/h
1189 04-04-2021 03:00:00 4 C 5.47 g/m*3 1.93 C 8.1 km/h
1190 04-04-2021 03:05:00 4.1 C 5.5 g/m*3 4.1 C 1.6 km/h
1191 04-04-2021 03:10:00 4.1 C 5.38 g/m*3 4.1 C 3.2 km/h
1192 04-04-2021 03:15:00 3.9 C 5.31 g/m*3 3.9 C 3.2 km/h
1193 04-04-2021 03:20:00 3.9 C 5.37 g/m*3 3.9 C 4.8 km/h
1194 04-04-2021 03:25:00 3.9 C 5.37 g/m*3 3.9 C 3.2 km/h
1195 04-04-2021 03:30:00 3.8 C 5.33 g/m*3 3.8 C 3.2 km/h
1196 04-04-2021 03:35:00 3.8 C 5.33 g/m*3 3.8 C 1.6 km/h
1197 04-04-2021 03:40:00 3.8 C 5.4 g/m*3 3.8 C 1.6 km/h
1198 04-04-2021 03:45:00 3.8 C 5.4 g/m*3 3.8 C 4.8 km/h
1199 04-04-2021 03:50:00 3.8 C 5.4 g/m*3 3.8 C 4.8 km/h
1200 04-04-2021 03:55:00 3.8 C 5.4 g/m*3 3.8 C 1.6 km/h
Sensor: Nr:Datum:Temp:Abs-Feuchte:Windchill:Wind:
Aussen-T/F 1201 04-04-2021 04:00:00 3.7 C 5.3 g/m*3 3.7 C 3.2 km/h
1202 04-04-2021 04:05:00 3.5 C 5.23 g/m*3 3.5 C 4.8 km/h
1203 04-04-2021 04:10:00 3.4 C 5.25 g/m*3 3.4 C 4.8 km/h
1204 04-04-2021 04:15:00 3.3 C 5.22 g/m*3 3.3 C 3.2 km/h
1205 04-04-2021 04:20:00 3.2 C 5.18 g/m*3 3.2 C 3.2 km/h
1206 04-04-2021 04:25:00 3.1 C 5.15 g/m*3 3.1 C 3.2 km/h
1207 04-04-2021 04:30:00 2.9 C 5.14 g/m*3 2.9 C 4.8 km/h
1208 04-04-2021 04:35:00 2.9 C 5.2 g/m*3 2.9 C 3.2 km/h
1209 04-04-2021 04:40:00 3 C 5.29 g/m*3 3 C 3.2 km/h
1210 04-04-2021 04:45:00 3.1 C 5.27 g/m*3 3.1 C 1.6 km/h
1211 04-04-2021 04:50:00 3.1 C 5.33 g/m*3 1.4 C 6.4 km/h
1212 04-04-2021 04:55:00 3.3 C 5.4 g/m*3 3.3 C 3.2 km/h
1213 04-04-2021 05:00:00 3.3 C 5.4 g/m*3 3.3 C 3.2 km/h
1214 04-04-2021 05:05:00 3.3 C 5.34 g/m*3 3.3 C 4.8 km/h
1215 04-04-2021 05:10:00 3.2 C 5.3 g/m*3 3.2 C 0 km/h
1216 04-04-2021 05:15:00 3.1 C 5.27 g/m*3 1.4 C 6.4 km/h
1217 04-04-2021 05:20:00 3 C 5.23 g/m*3 3 C 4.8 km/h
1218 04-04-2021 05:25:00 2.9 C 5.2 g/m*3 2.9 C 3.2 km/h
1219 04-04-2021 05:30:00 2.8 C 5.16 g/m*3 2.8 C 1.6 km/h
1220 04-04-2021 05:35:00 2.8 C 5.16 g/m*3 2.8 C 3.2 km/h
1221 04-04-2021 05:40:00 2.7 C 5.13 g/m*3 2.7 C 0 km/h
1222 04-04-2021 05:45:00 2.6 C 5.09 g/m*3 2.6 C 3.2 km/h
1223 04-04-2021 05:50:00 2.4 C 5.02 g/m*3 2.4 C 4.8 km/h
1224 04-04-2021 05:55:00 2.3 C 4.99 g/m*3 2.3 C 4.8 km/h
1225 04-04-2021 06:00:00 2.3 C 5.05 g/m*3 2.3 C 1.6 km/h
Sensor: Nr:Datum:Temp:Abs-Feuchte:Windchill:Wind:
Aussen-T/F 1226 04-04-2021 06:05:00 2.2 C 5.01 g/m*3 2.2 C 0 km/h
1227 04-04-2021 06:10:00 2.2 C 5.01 g/m*3 2.2 C 3.2 km/h
1228 04-04-2021 06:15:00 2.1 C 5.04 g/m*3 2.1 C 0 km/h
1229 04-04-2021 06:20:00 2 C 4.95 g/m*3 2 C 0 km/h
1230 04-04-2021 06:25:00 1.9 C 4.91 g/m*3 1.9 C 0 km/h
1231 04-04-2021 06:30:00 1.8 C 4.88 g/m*3 1.8 C 1.6 km/h
1232 04-04-2021 06:35:00 1.6 C 4.81 g/m*3 1.6 C 0 km/h
1233 04-04-2021 06:40:00 1.5 C 4.78 g/m*3 1.5 C 1.6 km/h
1234 04-04-2021 06:45:00 1.4 C 4.8 g/m*3 1.4 C 0 km/h
1235 04-04-2021 06:50:00 1.3 C 4.77 g/m*3 1.3 C 0 km/h
1236 04-04-2021 06:55:00 1.2 C 4.74 g/m*3 1.2 C 0 km/h
1237 04-04-2021 07:00:00 1.2 C 4.74 g/m*3 1.2 C 0 km/h
1238 04-04-2021 07:05:00 1.1 C 4.7 g/m*3 1.1 C 0 km/h
1239 04-04-2021 07:10:00 1 C 4.67 g/m*3 1 C 0 km/h
1240 04-04-2021 07:15:00 1 C 4.72 g/m*3 1 C 0 km/h
1241 04-04-2021 07:20:00 1 C 4.72 g/m*3 1 C 0 km/h
1242 04-04-2021 07:25:00 1.1 C 4.76 g/m*3 1.1 C 0 km/h
1243 04-04-2021 07:30:00 1.1 C 4.76 g/m*3 1.1 C 0 km/h
1244 04-04-2021 07:35:00 1.1 C 4.81 g/m*3 1.1 C 1.6 km/h
1245 04-04-2021 07:40:00 1 C 4.78 g/m*3 1 C 0 km/h
1246 04-04-2021 07:45:00 1 C 4.78 g/m*3 1 C 0 km/h
1247 04-04-2021 07:50:00 1 C 4.78 g/m*3 1 C 0 km/h
1248 04-04-2021 07:55:00 1 C 4.78 g/m*3 1 C 0 km/h
1249 04-04-2021 08:00:00 1 C 4.78 g/m*3 1 C 0 km/h
1250 04-04-2021 08:05:00 1 C 4.78 g/m*3 1 C 0 km/h
Sensor: Nr:Datum:Temp:Abs-Feuchte:Windchill:Wind:
Aussen-T/F 1251 04-04-2021 08:10:00 1.1 C 4.81 g/m*3 1.1 C 0 km/h
1252 04-04-2021 08:15:00 1.2 C 4.84 g/m*3 1.2 C 1.6 km/h
1253 04-04-2021 08:20:00 1.3 C 4.93 g/m*3 1.3 C 0 km/h
1254 04-04-2021 08:25:00 1.3 C 4.93 g/m*3 1.3 C 0 km/h
1255 04-04-2021 08:30:00 1.5 C 4.99 g/m*3 1.5 C 3.2 km/h
1256 04-04-2021 08:35:00 1.6 C 5.03 g/m*3 1.6 C 0 km/h
1257 04-04-2021 08:40:00 1.8 C 5.1 g/m*3 1.8 C 0 km/h
1258 04-04-2021 08:45:00 1.9 C 5.13 g/m*3 1.9 C 0 km/h
1259 04-04-2021 08:50:00 2 C 5.17 g/m*3 2 C 0 km/h
1260 04-04-2021 08:55:00 2.1 C 5.2 g/m*3 2.1 C 0 km/h
1261 04-04-2021 09:00:00 2.3 C 5.27 g/m*3 2.3 C 0 km/h
1262 04-04-2021 09:05:00 2.6 C 5.38 g/m*3 2.6 C 1.6 km/h
1263 04-04-2021 09:10:00 2.8 C 5.46 g/m*3 2.8 C 0 km/h
1264 04-04-2021 09:15:00 3.1 C 5.57 g/m*3 3.1 C 4.8 km/h
1265 04-04-2021 09:20:00 3.3 C 5.58 g/m*3 3.3 C 0 km/h
1266 04-04-2021 09:25:00 3.4 C 5.62 g/m*3 3.4 C 0 km/h
1267 04-04-2021 09:30:00 3.7 C 5.73 g/m*3 3.7 C 0 km/h
1268 04-04-2021 09:35:00 3.9 C 5.75 g/m*3 3.9 C 0 km/h
1269 04-04-2021 09:40:00 4.3 C 5.9 g/m*3 4.3 C 0 km/h
1270 04-04-2021 09:45:00 4.6 C 5.96 g/m*3 4.6 C 1.6 km/h
1271 04-04-2021 09:50:00 4.8 C 5.97 g/m*3 4.8 C 4.8 km/h
1272 04-04-2021 09:55:00 5 C 5.91 g/m*3 5 C 3.2 km/h
1273 04-04-2021 10:00:00 5.2 C 5.92 g/m*3 5.2 C 4.8 km/h
1274 04-04-2021 10:05:00 5.3 C 5.89 g/m*3 5.3 C 4.8 km/h
1275 04-04-2021 10:10:00 5.5 C 5.9 g/m*3 5.5 C 1.6 km/h
Sensor: Nr:Datum:Temp:Abs-Feuchte:Windchill:Wind:
Aussen-T/F 1276 04-04-2021 10:15:00 5.6 C 5.8 g/m*3 4.29 C 6.4 km/h
1277 04-04-2021 10:20:00 5.8 C 5.8 g/m*3 4.05 C 8.1 km/h
1278 04-04-2021 10:25:00 6.1 C 5.77 g/m*3 4.04 C 9.7 km/h
1279 04-04-2021 10:30:00 6.2 C 5.81 g/m*3 6.2 C 4.8 km/h
1280 04-04-2021 10:35:00 6.3 C 5.77 g/m*3 4.27 C 9.7 km/h
1281 04-04-2021 10:40:00 6.4 C 5.81 g/m*3 4.39 C 9.7 km/h
1282 04-04-2021 10:45:00 6.4 C 5.66 g/m*3 4.75 C 8.1 km/h
1283 04-04-2021 10:50:00 6.5 C 5.62 g/m*3 5.33 C 6.4 km/h
1284 04-04-2021 10:55:00 6.6 C 5.59 g/m*3 4.04 C 12.9 km/h
1285 04-04-2021 11:00:00 6.6 C 5.51 g/m*3 4.99 C 8.1 km/h
1286 04-04-2021 11:05:00 6.6 C 5.51 g/m*3 4.99 C 8.1 km/h
1287 04-04-2021 11:10:00 6.6 C 5.59 g/m*3 5.44 C 6.4 km/h
1288 04-04-2021 11:15:00 6.7 C 5.62 g/m*3 5.11 C 8.1 km/h
1289 04-04-2021 11:20:00 6.7 C 5.47 g/m*3 4.75 C 9.7 km/h
1290 04-04-2021 11:25:00 6.7 C 5.47 g/m*3 5.11 C 8.1 km/h
1291 04-04-2021 11:30:00 6.7 C 5.47 g/m*3 4.44 C 11.3 km/h
1292 04-04-2021 11:35:00 6.7 C 5.39 g/m*3 4.17 C 12.9 km/h
1293 04-04-2021 11:40:00 6.7 C 5.47 g/m*3 5.11 C 8.1 km/h
1294 04-04-2021 11:45:00 6.7 C 5.32 g/m*3 4.75 C 9.7 km/h
1295 04-04-2021 11:50:00 6.8 C 5.35 g/m*3 4.87 C 9.7 km/h
1296 04-04-2021 11:55:00 6.8 C 5.35 g/m*3 4.56 C 11.3 km/h
1297 04-04-2021 12:00:00 6.8 C 5.43 g/m*3 4.87 C 9.7 km/h
1298 04-04-2021 12:05:00 6.9 C 5.39 g/m*3 4.41 C 12.9 km/h
1299 04-04-2021 12:10:00 6.9 C 5.39 g/m*3 5.79 C 6.4 km/h
1300 04-04-2021 12:15:00 6.9 C 5.39 g/m*3 4.99 C 9.7 km/h
Sensor: Nr:Datum:Temp:Abs-Feuchte:Windchill:Wind:
Aussen-T/F 1301 04-04-2021 12:20:00 7 C 5.42 g/m*3 5.46 C 8.1 km/h
1302 04-04-2021 12:25:00 7 C 5.35 g/m*3 4.29 C 14.5 km/h
1303 04-04-2021 12:30:00 7.1 C 5.38 g/m*3 4.92 C 11.3 km/h
1304 04-04-2021 12:35:00 7.2 C 5.49 g/m*3 5.04 C 11.3 km/h
1305 04-04-2021 12:40:00 7.2 C 5.42 g/m*3 4.77 C 12.9 km/h
1306 04-04-2021 12:45:00 7.2 C 5.42 g/m*3 5.04 C 11.3 km/h
1307 04-04-2021 12:50:00 7.2 C 5.34 g/m*3 4.31 C 16.1 km/h
1308 04-04-2021 12:55:00 7.2 C 5.34 g/m*3 5.35 C 9.7 km/h
1309 04-04-2021 13:00:00 7.3 C 5.37 g/m*3 5.16 C 11.3 km/h
1310 04-04-2021 13:05:00 7.3 C 5.37 g/m*3 4.9 C 12.9 km/h
1311 04-04-2021 13:10:00 7.3 C 5.37 g/m*3 5.16 C 11.3 km/h
1312 04-04-2021 13:15:00 7.3 C 5.29 g/m*3 5.16 C 11.3 km/h
1313 04-04-2021 13:20:00 7.4 C 5.33 g/m*3 5.58 C 9.7 km/h
1314 04-04-2021 13:25:00 7.6 C 5.48 g/m*3 5.26 C 12.9 km/h
1315 04-04-2021 13:30:00 7.6 C 5.32 g/m*3 5.26 C 12.9 km/h
1316 04-04-2021 13:35:00 7.6 C 5.32 g/m*3 5.26 C 12.9 km/h
1317 04-04-2021 13:40:00 7.6 C 5.32 g/m*3 5.02 C 14.5 km/h
1318 04-04-2021 13:45:00 7.5 C 5.28 g/m*3 5.14 C 12.9 km/h
1319 04-04-2021 13:50:00 7.4 C 5.25 g/m*3 5.58 C 9.7 km/h
1320 04-04-2021 13:55:00 7.4 C 5.33 g/m*3 5.58 C 9.7 km/h
1321 04-04-2021 14:00:00 7.7 C 5.43 g/m*3 5.38 C 12.9 km/h
1322 04-04-2021 14:05:00 7.7 C 5.35 g/m*3 5.94 C 9.7 km/h
1323 04-04-2021 14:10:00 7.8 C 5.3 g/m*3 6.83 C 6.4 km/h
1324 04-04-2021 14:15:00 7.9 C 5.42 g/m*3 7.9 C 4.8 km/h
1325 04-04-2021 14:20:00 8.2 C 5.53 g/m*3 6.54 C 9.7 km/h
Sensor: Nr:Datum:Temp:Abs-Feuchte:Windchill:Wind:
Aussen-T/F 1326 04-04-2021 14:25:00 8.3 C 5.39 g/m*3 6.99 C 8.1 km/h
1327 04-04-2021 14:30:00 8.4 C 5.43 g/m*3 6.78 C 9.7 km/h
1328 04-04-2021 14:35:00 8.4 C 5.34 g/m*3 6.24 C 12.9 km/h
1329 04-04-2021 14:40:00 8.6 C 5.5 g/m*3 6.73 C 11.3 km/h
1330 04-04-2021 14:45:00 8.7 C 5.45 g/m*3 6.85 C 11.3 km/h
1331 04-04-2021 14:50:00 8.7 C 5.28 g/m*3 7.13 C 9.7 km/h
1332 04-04-2021 14:55:00 8.6 C 5.33 g/m*3 6.73 C 11.3 km/h
1333 04-04-2021 15:00:00 8.7 C 5.36 g/m*3 6.6 C 12.9 km/h
1334 04-04-2021 15:05:00 8.7 C 5.36 g/m*3 6.6 C 12.9 km/h
1335 04-04-2021 15:10:00 8.6 C 5.33 g/m*3 6.73 C 11.3 km/h
1336 04-04-2021 15:15:00 8.7 C 5.36 g/m*3 6.6 C 12.9 km/h
1337 04-04-2021 15:20:00 8.8 C 5.31 g/m*3 6.97 C 11.3 km/h
1338 04-04-2021 15:25:00 9 C 5.38 g/m*3 7.21 C 11.3 km/h
1339 04-04-2021 15:30:00 9.1 C 5.32 g/m*3 9.1 C 4.8 km/h
1340 04-04-2021 15:35:00 9.2 C 5.45 g/m*3 7.73 C 9.7 km/h
1341 04-04-2021 15:40:00 9.3 C 5.39 g/m*3 8.56 C 6.4 km/h
1342 04-04-2021 15:45:00 9.3 C 5.3 g/m*3 7.85 C 9.7 km/h
1343 04-04-2021 15:50:00 9.3 C 5.39 g/m*3 6.92 C 16.1 km/h
1344 04-04-2021 15:55:00 9.3 C 5.39 g/m*3 7.33 C 12.9 km/h
1345 04-04-2021 16:00:00 9.3 C 5.39 g/m*3 7.58 C 11.3 km/h
1346 04-04-2021 16:05:00 9.4 C 5.43 g/m*3 7.97 C 9.7 km/h
1347 04-04-2021 16:10:00 9.6 C 5.5 g/m*3 8.21 C 9.7 km/h
1348 04-04-2021 16:15:00 9.6 C 5.4 g/m*3 7.7 C 12.9 km/h
1349 04-04-2021 16:20:00 9.5 C 5.46 g/m*3 8.09 C 9.7 km/h
1350 04-04-2021 16:25:00 9.7 C 5.53 g/m*3 9.7 C 4.8 km/h
Sensor: Nr:Datum:Temp:Abs-Feuchte:Windchill:Wind:
Aussen-T/F 1351 04-04-2021 16:30:00 9.9 C 5.6 g/m*3 8.87 C 8.1 km/h
1352 04-04-2021 16:35:00 10.2 C 5.8 g/m*3 8.92 C 9.7 km/h
1353 04-04-2021 16:40:00 10.4 C 5.78 g/m*3 9.46 C 8.1 km/h
1354 04-04-2021 16:45:00 10.7 C 5.8 g/m*3 9.26 C 11.3 km/h
1355 04-04-2021 16:50:00 10.8 C 5.73 g/m*3 9.64 C 9.7 km/h
1356 04-04-2021 16:55:00 10.8 C 5.73 g/m*3 9.93 C 8.1 km/h
1357 04-04-2021 17:00:00 10.9 C 5.77 g/m*3 10.04 C 8.1 km/h
1358 04-04-2021 17:05:00 10.8 C 5.63 g/m*3 9.93 C 8.1 km/h
1359 04-04-2021 17:10:00 10.3 C 5.55 g/m*3 8.34 C 14.5 km/h
1360 04-04-2021 17:15:00 10.2 C 5.61 g/m*3 8.66 C 11.3 km/h
1361 04-04-2021 17:20:00 10 C 5.64 g/m*3 8.68 C 9.7 km/h
1362 04-04-2021 17:25:00 10.2 C 5.71 g/m*3 8.66 C 11.3 km/h
1363 04-04-2021 17:30:00 10.2 C 5.71 g/m*3 8.43 C 12.9 km/h
1364 04-04-2021 17:35:00 10.2 C 5.8 g/m*3 10.2 C 4.8 km/h
1365 04-04-2021 17:40:00 10.2 C 5.71 g/m*3 8.92 C 9.7 km/h
1366 04-04-2021 17:45:00 10.3 C 5.84 g/m*3 9.34 C 8.1 km/h
1367 04-04-2021 17:50:00 10.4 C 5.78 g/m*3 9.83 C 6.4 km/h
1368 04-04-2021 17:55:00 10.5 C 5.82 g/m*3 9.95 C 6.4 km/h
1369 04-04-2021 18:00:00 10.4 C 5.78 g/m*3 9.16 C 9.7 km/h
1370 04-04-2021 18:05:00 10.2 C 5.8 g/m*3 8.66 C 11.3 km/h
1371 04-04-2021 18:10:00 10.3 C 5.84 g/m*3 9.34 C 8.1 km/h
1372 04-04-2021 18:15:00 10.3 C 5.75 g/m*3 9.72 C 6.4 km/h
1373 04-04-2021 18:20:00 10.2 C 5.8 g/m*3 8.92 C 9.7 km/h
1374 04-04-2021 18:25:00 10.2 C 5.9 g/m*3 9.6 C 6.4 km/h
1375 04-04-2021 18:30:00 10.2 C 5.8 g/m*3 8.92 C 9.7 km/h
Sensor: Nr:Datum:Temp:Abs-Feuchte:Windchill:Wind:
Aussen-T/F 1376 04-04-2021 18:35:00 10 C 5.83 g/m*3 8.99 C 8.1 km/h
1377 04-04-2021 18:40:00 9.9 C 5.79 g/m*3 8.87 C 8.1 km/h
1378 04-04-2021 18:45:00 9.8 C 5.75 g/m*3 9.8 C 4.8 km/h
1379 04-04-2021 18:50:00 9.8 C 5.75 g/m*3 9.14 C 6.4 km/h
1380 04-04-2021 18:55:00 9.8 C 5.85 g/m*3 9.14 C 6.4 km/h
1381 04-04-2021 19:00:00 9.7 C 5.81 g/m*3 8.63 C 8.1 km/h
1382 04-04-2021 19:05:00 9.6 C 5.77 g/m*3 9.6 C 4.8 km/h
1383 04-04-2021 19:10:00 9.4 C 5.79 g/m*3 8.28 C 8.1 km/h
1384 04-04-2021 19:15:00 9.1 C 5.68 g/m*3 7.93 C 8.1 km/h
1385 04-04-2021 19:20:00 8.7 C 5.71 g/m*3 7.13 C 9.7 km/h
1386 04-04-2021 19:25:00 8.4 C 5.68 g/m*3 7.52 C 6.4 km/h
1387 04-04-2021 19:30:00 8.3 C 5.65 g/m*3 6.99 C 8.1 km/h
1388 04-04-2021 19:35:00 8.2 C 5.61 g/m*3 7.29 C 6.4 km/h
1389 04-04-2021 19:40:00 8.1 C 5.66 g/m*3 7.17 C 6.4 km/h
1390 04-04-2021 19:45:00 7.9 C 5.59 g/m*3 6.94 C 6.4 km/h
1391 04-04-2021 19:50:00 7.8 C 5.63 g/m*3 7.8 C 1.6 km/h
1392 04-04-2021 19:55:00 7.7 C 5.59 g/m*3 7.7 C 1.6 km/h
1393 04-04-2021 20:00:00 7.5 C 5.6 g/m*3 6.48 C 6.4 km/h
1394 04-04-2021 20:05:00 7.4 C 5.57 g/m*3 6.37 C 6.4 km/h
1395 04-04-2021 20:10:00 7.2 C 5.57 g/m*3 7.2 C 4.8 km/h
1396 04-04-2021 20:15:00 7.1 C 5.46 g/m*3 7.1 C 0 km/h
1397 04-04-2021 20:20:00 6.8 C 5.43 g/m*3 6.8 C 1.6 km/h
1398 04-04-2021 20:25:00 6.4 C 5.36 g/m*3 6.4 C 1.6 km/h
1399 04-04-2021 20:30:00 6 C 5.3 g/m*3 6 C 1.6 km/h
1400 04-04-2021 20:35:00 5.7 C 5.34 g/m*3 5.7 C 3.2 km/h
Sensor: Nr:Datum:Temp:Abs-Feuchte:Windchill:Wind:
Aussen-T/F 1401 04-04-2021 20:40:00 5.4 C 5.3 g/m*3 5.4 C 3.2 km/h
1402 04-04-2021 20:45:00 5.2 C 5.3 g/m*3 5.2 C 4.8 km/h
1403 04-04-2021 20:50:00 5 C 5.3 g/m*3 5 C 4.8 km/h
1404 04-04-2021 20:55:00 4.8 C 5.3 g/m*3 4.8 C 4.8 km/h
1405 04-04-2021 21:00:00 4.7 C 5.26 g/m*3 4.7 C 4.8 km/h
1406 04-04-2021 21:05:00 4.6 C 5.29 g/m*3 3.13 C 6.4 km/h
1407 04-04-2021 21:10:00 4.4 C 5.29 g/m*3 2.9 C 6.4 km/h
1408 04-04-2021 21:15:00 4.3 C 5.25 g/m*3 2.78 C 6.4 km/h
1409 04-04-2021 21:20:00 4.3 C 5.32 g/m*3 4.3 C 4.8 km/h
1410 04-04-2021 21:25:00 4.2 C 5.28 g/m*3 4.2 C 3.2 km/h
1411 04-04-2021 21:30:00 4.1 C 5.25 g/m*3 4.1 C 3.2 km/h
1412 04-04-2021 21:35:00 4 C 5.21 g/m*3 4 C 3.2 km/h
1413 04-04-2021 21:40:00 3.8 C 5.14 g/m*3 3.8 C 0 km/h
1414 04-04-2021 21:45:00 3.7 C 5.17 g/m*3 3.7 C 4.8 km/h
1415 04-04-2021 21:50:00 3.6 C 5.14 g/m*3 3.6 C 1.6 km/h
1416 04-04-2021 21:55:00 3.4 C 5.13 g/m*3 3.4 C 0 km/h
1417 04-04-2021 22:00:00 3.3 C 5.1 g/m*3 3.3 C 0 km/h
1418 04-04-2021 22:05:00 3.2 C 5.06 g/m*3 3.2 C 0 km/h
1419 04-04-2021 22:10:00 3.1 C 5.03 g/m*3 3.1 C 0 km/h
1420 04-04-2021 22:15:00 3 C 5.05 g/m*3 3 C 0 km/h
1421 04-04-2021 22:20:00 2.9 C 5.02 g/m*3 2.9 C 0 km/h
1422 04-04-2021 22:25:00 2.8 C 5.04 g/m*3 2.8 C 0 km/h
1423 04-04-2021 22:30:00 2.7 C 5.01 g/m*3 2.7 C 0 km/h
1424 04-04-2021 22:35:00 2.6 C 4.98 g/m*3 2.6 C 0 km/h
1425 04-04-2021 22:40:00 2.6 C 5.03 g/m*3 2.6 C 0 km/h
Sensor: Nr:Datum:Temp:Abs-Feuchte:Windchill:Wind:
Aussen-T/F 1426 04-04-2021 22:45:00 2.4 C 4.97 g/m*3 2.4 C 0 km/h
1427 04-04-2021 22:50:00 2.3 C 4.93 g/m*3 2.3 C 0 km/h
1428 04-04-2021 22:55:00 2.2 C 4.9 g/m*3 2.2 C 0 km/h
1429 04-04-2021 23:00:00 2.2 C 4.96 g/m*3 2.2 C 0 km/h
1430 04-04-2021 23:05:00 2.1 C 4.92 g/m*3 2.1 C 0 km/h
1431 04-04-2021 23:10:00 2 C 4.89 g/m*3 2 C 0 km/h
1432 04-04-2021 23:15:00 1.9 C 4.86 g/m*3 1.9 C 0 km/h
1433 04-04-2021 23:20:00 1.9 C 4.91 g/m*3 1.9 C 0 km/h
1434 04-04-2021 23:25:00 1.8 C 4.88 g/m*3 1.8 C 0 km/h
1435 04-04-2021 23:30:00 1.8 C 4.88 g/m*3 1.8 C 0 km/h
1436 04-04-2021 23:35:00 1.7 C 4.85 g/m*3 1.7 C 0 km/h
1437 04-04-2021 23:40:00 1.7 C 4.85 g/m*3 1.7 C 0 km/h
1438 04-04-2021 23:45:00 1.6 C 4.81 g/m*3 1.6 C 0 km/h
1439 04-04-2021 23:50:00 1.5 C 4.78 g/m*3 1.5 C 0 km/h
1440 04-04-2021 23:55:00 1.4 C 4.75 g/m*3 1.4 C 0 km/h

Legende:
   Min
   Max


Maximal/Minimal-Werte vom 14.04.2020 - 16.05.2020

Sensor Min Max Avg
Temp
(Aussen-T/F)
-0.1 °C
15-04-2020  06:55:00
26.2 °C
17-04-2020  18:05:00
11.98 °C

Die Daten stammen von einer Davis Vantage Pro 2 Wetter-Station und werden unter Linux mit der Software wview2wettercgi und aufbereitet. Alle Angaben erfolgen ohne Gewähr für ihre Vollständigkeit oder Richtigkeit.
Kontakt: Rainer Krienke krienke@uni-koblenz.de . Meine Webseiten an der Uni Koblenz oder privat.
Version: $Revision: 0.78 $